Time,TemperatureF,DewpointF,PressureIn,WindDirection,WindDirectionDegrees,WindSpeedMPH,WindSpeedGustMPH,Humidity,HourlyPrecipIn,Conditions,Clouds,dailyrainin,SoftwareType,DateUTC
2013-06-19 00:00:00,56.0,43.2,29.97,NE,51,0.0,9.0,62,0.00,,---,0.02,VWS V14.00,2013-06-19 04:00:00,
2013-06-19 00:01:00,56.0,43.2,29.98,NE,51,0.0,9.0,62,0.00,,---,0.02,VWS V14.00,2013-06-19 04:01:00,
2013-06-19 00:06:00,55.3,43.8,29.98,NE,51,0.0,0.0,65,0.00,,---,0.00,VWS V14.00,2013-06-19 04:06:00,
2013-06-19 00:11:00,54.5,44.2,29.98,NE,51,0.0,0.0,68,0.00,,---,0.00,VWS V14.00,2013-06-19 04:11:00,
2013-06-19 00:12:00,54.4,44.1,29.98,NE,51,0.0,0.0,68,0.00,,---,0.00,VWS V14.00,2013-06-19 04:12:00,
2013-06-19 00:16:00,54.1,43.8,29.97,NE,51,0.0,0.0,68,0.00,,---,0.00,VWS V14.00,2013-06-19 04:16:00,
2013-06-19 00:17:00,54.1,43.8,29.97,NE,51,0.0,0.0,68,0.00,,---,0.00,VWS V14.00,2013-06-19 04:17:00,
2013-06-19 00:21:00,54.2,43.1,29.97,NE,51,0.0,4.0,66,0.00,,---,0.00,VWS V14.00,2013-06-19 04:21:00,
2013-06-19 00:22:00,54.2,43.1,29.97,NE,51,1.0,4.0,66,0.00,,---,0.00,VWS V14.00,2013-06-19 04:22:00,
2013-06-19 00:26:00,54.8,42.9,29.97,NE,48,0.0,4.0,64,0.00,,---,0.00,VWS V14.00,2013-06-19 04:26:00,
2013-06-19 00:27:00,54.8,42.9,29.97,NE,48,0.0,4.0,64,0.00,,---,0.00,VWS V14.00,2013-06-19 04:27:00,
2013-06-19 00:31:00,55.4,42.6,29.97,NE,47,1.0,7.0,62,0.00,,---,0.00,VWS V14.00,2013-06-19 04:31:00,
2013-06-19 00:32:00,55.4,42.6,29.97,NE,55,2.0,7.0,62,0.00,,---,0.00,VWS V14.00,2013-06-19 04:32:00,
2013-06-19 00:37:00,55.7,42.0,29.97,ENE,71,2.0,7.0,60,0.00,,---,0.00,VWS V14.00,2013-06-19 04:37:00,
2013-06-19 00:38:00,55.6,42.4,29.97,NE,55,2.0,7.0,61,0.00,,---,0.00,VWS V14.00,2013-06-19 04:38:00,
2013-06-19 00:42:00,55.7,42.0,29.97,NE,48,2.0,8.0,60,0.00,,---,0.00,VWS V14.00,2013-06-19 04:42:00,
2013-06-19 00:43:00,55.7,41.6,29.97,ENE,72,0.0,8.0,59,0.00,,---,0.00,VWS V14.00,2013-06-19 04:43:00,
2013-06-19 00:47:00,55.7,42.0,29.97,NE,48,4.0,8.0,60,0.00,,---,0.00,VWS V14.00,2013-06-19 04:47:00,
2013-06-19 00:48:00,55.7,42.0,29.97,NE,48,0.0,8.0,60,0.00,,---,0.00,VWS V14.00,2013-06-19 04:48:00,
2013-06-19 00:52:00,55.6,42.4,29.97,NE,37,0.0,8.0,61,0.00,,---,0.00,VWS V14.00,2013-06-19 04:52:00,
2013-06-19 00:53:00,55.4,42.2,29.97,NE,37,0.0,8.0,61,0.00,,---,0.00,VWS V14.00,2013-06-19 04:53:00,
2013-06-19 00:57:00,55.0,42.2,29.97,NE,40,0.0,8.0,62,0.00,,---,0.00,VWS V14.00,2013-06-19 04:57:00,
2013-06-19 00:58:00,55.0,42.2,29.97,NE,40,0.0,8.0,62,0.00,,---,0.00,VWS V14.00,2013-06-19 04:58:00,
2013-06-19 00:59:00,54.8,42.5,29.97,NE,40,0.0,8.0,63,0.00,,---,0.00,VWS V14.00,2013-06-19 04:59:00,
2013-06-19 01:02:00,54.5,42.6,29.97,NE,47,0.0,0.0,64,0.00,,---,0.00,VWS V14.00,2013-06-19 05:02:00,
2013-06-19 01:03:00,54.4,42.5,29.97,NE,47,0.0,0.0,64,0.00,,---,0.00,VWS V14.00,2013-06-19 05:03:00,
2013-06-19 01:04:00,54.4,42.5,29.97,NE,47,0.0,0.0,64,0.00,,---,0.00,VWS V14.00,2013-06-19 05:04:00,
2013-06-19 01:07:00,54.1,42.6,29.97,NE,44,0.0,0.0,65,0.00,,---,0.00,VWS V14.00,2013-06-19 05:07:00,
2013-06-19 01:08:00,54.1,42.6,29.97,NE,44,0.0,0.0,65,0.00,,---,0.00,VWS V14.00,2013-06-19 05:08:00,
2013-06-19 01:09:00,54.1,42.6,29.97,NE,44,0.0,0.0,65,0.00,,---,0.00,VWS V14.00,2013-06-19 05:09:00,
2013-06-19 01:13:00,53.8,41.9,29.97,NE,44,0.0,0.0,64,0.00,,---,0.00,VWS V14.00,2013-06-19 05:13:00,
2013-06-19 01:14:00,53.8,42.3,29.97,NE,47,0.0,0.0,65,0.00,,---,0.00,VWS V14.00,2013-06-19 05:14:00,
2013-06-19 01:18:00,53.5,42.0,29.98,NE,47,0.0,0.0,65,0.00,,---,0.00,VWS V14.00,2013-06-19 05:18:00,
2013-06-19 01:19:00,53.5,42.4,29.98,NE,47,0.0,0.0,66,0.00,,---,0.00,VWS V14.00,2013-06-19 05:19:00,
2013-06-19 01:23:00,53.2,42.5,29.98,NE,47,0.0,0.0,67,0.00,,---,0.00,VWS V14.00,2013-06-19 05:23:00,
2013-06-19 01:24:00,53.2,42.5,29.98,NE,47,0.0,0.0,67,0.00,,---,0.00,VWS V14.00,2013-06-19 05:24:00,
2013-06-19 01:28:00,53.3,41.8,29.98,NE,40,0.0,0.0,65,0.00,,---,0.00,VWS V14.00,2013-06-19 05:28:00,
2013-06-19 01:29:00,53.3,41.8,29.98,NE,40,0.0,0.0,65,0.00,,---,0.00,VWS V14.00,2013-06-19 05:29:00,
2013-06-19 01:33:00,53.8,41.5,29.98,NE,40,0.0,0.0,63,0.00,,---,0.00,VWS V14.00,2013-06-19 05:33:00,
2013-06-19 01:34:00,53.8,41.5,29.98,NE,40,0.0,0.0,63,0.00,,---,0.00,VWS V14.00,2013-06-19 05:34:00,
2013-06-19 01:35:00,53.8,41.5,29.98,NE,40,0.0,0.0,63,0.00,,---,0.00,VWS V14.00,2013-06-19 05:35:00,
2013-06-19 01:39:00,53.9,41.6,29.98,NE,51,0.0,0.0,63,0.00,,---,0.00,VWS V14.00,2013-06-19 05:39:00,
2013-06-19 01:40:00,53.8,41.5,29.98,NE,51,0.0,0.0,63,0.00,,---,0.00,VWS V14.00,2013-06-19 05:40:00,
2013-06-19 01:44:00,53.5,41.2,29.98,NE,51,0.0,0.0,63,0.00,,---,0.00,VWS V14.00,2013-06-19 05:44:00,
2013-06-19 01:45:00,53.5,41.2,29.98,NE,51,0.0,0.0,63,0.00,,---,0.00,VWS V14.00,2013-06-19 05:45:00,
2013-06-19 01:49:00,53.3,41.5,29.98,NE,51,0.0,0.0,64,0.00,,---,0.00,VWS V14.00,2013-06-19 05:49:00,
2013-06-19 01:50:00,53.3,41.5,29.98,NE,51,0.0,0.0,64,0.00,,---,0.00,VWS V14.00,2013-06-19 05:50:00,
2013-06-19 01:54:00,53.2,41.3,29.98,NE,40,0.0,0.0,64,0.00,,---,0.00,VWS V14.00,2013-06-19 05:54:00,
2013-06-19 01:55:00,53.2,41.0,29.98,NE,37,0.0,0.0,63,0.00,,---,0.00,VWS V14.00,2013-06-19 05:55:00,
2013-06-19 01:59:00,53.6,40.5,29.98,NNE,24,0.0,8.0,61,0.00,,---,0.00,VWS V14.00,2013-06-19 05:59:00,
2013-06-19 02:00:00,53.6,40.5,29.98,NNE,24,0.0,8.0,61,0.00,,---,0.00,VWS V14.00,2013-06-19 06:00:00,
2013-06-19 02:01:00,53.6,40.5,29.98,NE,44,1.0,8.0,61,0.00,,---,0.00,VWS V14.00,2013-06-19 06:01:00,
2013-06-19 02:04:00,53.8,40.7,29.98,NNE,20,0.0,6.0,61,0.00,,---,0.00,VWS V14.00,2013-06-19 06:04:00,
2013-06-19 02:05:00,53.8,40.7,29.98,NNE,20,0.0,6.0,61,0.00,,---,0.00,VWS V14.00,2013-06-19 06:05:00,
2013-06-19 02:06:00,53.9,40.8,29.98,NNE,13,0.0,6.0,61,0.00,,---,0.00,VWS V14.00,2013-06-19 06:06:00,
2013-06-19 02:09:00,54.1,41.0,29.98,NNE,17,6.0,6.0,61,0.00,,---,0.00,VWS V14.00,2013-06-19 06:09:00,
2013-06-19 02:10:00,54.1,41.0,29.98,NNE,20,2.0,6.0,61,0.00,,---,0.00,VWS V14.00,2013-06-19 06:10:00,
2013-06-19 02:11:00,54.1,41.0,29.98,NNE,20,1.0,7.0,61,0.00,,---,0.00,VWS V14.00,2013-06-19 06:11:00,
2013-06-19 02:15:00,53.9,40.8,29.98,NNE,17,0.0,7.0,61,0.00,,---,0.00,VWS V14.00,2013-06-19 06:15:00,
2013-06-19 02:16:00,53.9,40.8,29.99,NNE,20,0.0,7.0,61,0.00,,---,0.00,VWS V14.00,2013-06-19 06:16:00,
2013-06-19 02:20:00,53.9,40.8,29.99,NNE,24,0.0,7.0,61,0.00,,---,0.00,VWS V14.00,2013-06-19 06:20:00,
2013-06-19 02:21:00,53.8,40.7,29.99,NNE,27,0.0,7.0,61,0.00,,---,0.00,VWS V14.00,2013-06-19 06:21:00,
2013-06-19 02:25:00,53.8,40.7,29.99,NNE,27,0.0,7.0,61,0.00,,---,0.00,VWS V14.00,2013-06-19 06:25:00,
2013-06-19 02:26:00,53.8,40.7,29.99,NNE,31,0.0,7.0,61,0.00,,---,0.00,VWS V14.00,2013-06-19 06:26:00,
2013-06-19 02:30:00,53.5,40.8,29.99,NNE,24,1.0,7.0,62,0.00,,---,0.00,VWS V14.00,2013-06-19 06:30:00,
2013-06-19 02:31:00,53.5,40.8,29.99,NNE,24,0.0,7.0,62,0.00,,---,0.00,VWS V14.00,2013-06-19 06:31:00,
2013-06-19 02:35:00,53.3,40.6,29.99,NNE,31,2.0,7.0,62,0.00,,---,0.00,VWS V14.00,2013-06-19 06:35:00,
2013-06-19 02:36:00,53.3,40.6,29.99,NNE,31,0.0,7.0,62,0.00,,---,0.00,VWS V14.00,2013-06-19 06:36:00,
2013-06-19 02:37:00,53.3,40.6,29.99,NNE,31,0.0,7.0,62,0.00,,---,0.00,VWS V14.00,2013-06-19 06:37:00,
2013-06-19 02:40:00,53.1,40.8,29.99,NE,41,0.0,7.0,63,0.00,,---,0.00,VWS V14.00,2013-06-19 06:40:00,
2013-06-19 02:41:00,53.1,40.8,29.99,NE,41,0.0,7.0,63,0.00,,---,0.00,VWS V14.00,2013-06-19 06:41:00,
2013-06-19 02:42:00,53.1,40.8,29.99,NE,41,0.0,7.0,63,0.00,,---,0.00,VWS V14.00,2013-06-19 06:42:00,
2013-06-19 02:45:00,53.1,40.4,29.99,NE,40,4.0,7.0,62,0.00,,---,0.00,VWS V14.00,2013-06-19 06:45:00,
2013-06-19 02:46:00,53.1,40.4,29.99,NE,37,2.0,7.0,62,0.00,,---,0.00,VWS V14.00,2013-06-19 06:46:00,
2013-06-19 02:47:00,53.1,40.4,29.99,NE,51,1.0,7.0,62,0.00,,---,0.00,VWS V14.00,2013-06-19 06:47:00,
2013-06-19 02:50:00,53.2,40.1,29.99,NE,44,1.0,7.0,61,0.00,,---,0.00,VWS V14.00,2013-06-19 06:50:00,
2013-06-19 02:51:00,53.2,40.1,29.99,NE,44,0.0,7.0,61,0.00,,---,0.00,VWS V14.00,2013-06-19 06:51:00,
2013-06-19 02:52:00,53.2,40.1,29.99,NNE,24,0.0,7.0,61,0.00,,---,0.00,VWS V14.00,2013-06-19 06:52:00,
2013-06-19 02:55:00,53.3,40.2,29.99,ENE,58,0.0,7.0,61,0.00,,---,0.00,VWS V14.00,2013-06-19 06:55:00,
2013-06-19 02:56:00,53.3,40.2,29.99,ENE,58,0.0,7.0,61,0.00,,---,0.00,VWS V14.00,2013-06-19 06:56:00,
2013-06-19 02:57:00,53.2,40.1,29.99,NE,37,2.0,7.0,61,0.00,,---,0.00,VWS V14.00,2013-06-19 06:57:00,
2013-06-19 03:00:00,53.2,40.1,29.99,NNE,31,2.0,7.0,61,0.00,,---,0.00,VWS V14.00,2013-06-19 07:00:00,
2013-06-19 03:01:00,53.2,40.1,29.99,NE,34,4.0,7.0,61,0.00,,---,0.00,VWS V14.00,2013-06-19 07:01:00,
2013-06-19 03:02:00,53.2,40.1,29.99,NE,34,0.0,1.0,61,0.00,,---,0.00,VWS V14.00,2013-06-19 07:02:00,
2013-06-19 03:06:00,53.1,40.0,29.99,NE,55,1.0,4.0,61,0.00,,---,0.00,VWS V14.00,2013-06-19 07:06:00,
2013-06-19 03:07:00,53.1,40.0,29.99,NE,34,2.0,4.0,61,0.00,,---,0.00,VWS V14.00,2013-06-19 07:07:00,
2013-06-19 03:08:00,53.1,40.4,29.99,NE,34,0.0,4.0,62,0.00,,---,0.00,VWS V14.00,2013-06-19 07:08:00,
2013-06-19 03:11:00,52.9,39.8,29.99,NNE,27,0.0,7.0,61,0.00,,---,0.00,VWS V14.00,2013-06-19 07:11:00,
2013-06-19 03:12:00,52.9,40.2,29.99,NE,37,0.0,7.0,62,0.00,,---,0.00,VWS V14.00,2013-06-19 07:12:00,
2013-06-19 03:13:00,52.9,40.2,29.99,NE,34,0.0,7.0,62,0.00,,---,0.00,VWS V14.00,2013-06-19 07:13:00,
2013-06-19 03:16:00,52.9,40.2,29.99,NNE,30,0.0,7.0,62,0.00,,---,0.00,VWS V14.00,2013-06-19 07:16:00,
2013-06-19 03:17:00,52.9,40.2,29.99,NE,55,0.0,7.0,62,0.00,,---,0.00,VWS V14.00,2013-06-19 07:17:00,
2013-06-19 03:18:00,52.9,40.2,29.99,NE,47,0.0,7.0,62,0.00,,---,0.00,VWS V14.00,2013-06-19 07:18:00,
2013-06-19 03:21:00,52.8,40.2,29.99,NE,47,0.0,7.0,62,0.00,,---,0.00,VWS V14.00,2013-06-19 07:21:00,
2013-06-19 03:22:00,52.8,40.2,29.99,NE,40,0.0,7.0,62,0.00,,---,0.00,VWS V14.00,2013-06-19 07:22:00,
2013-06-19 03:23:00,52.8,40.2,29.99,ENE,65,0.0,7.0,62,0.00,,---,0.00,VWS V14.00,2013-06-19 07:23:00,
2013-06-19 03:26:00,52.8,40.2,29.99,NE,48,0.0,7.0,62,0.00,,---,0.00,VWS V14.00,2013-06-19 07:26:00,
2013-06-19 03:27:00,52.8,40.2,29.99,NE,48,0.0,7.0,62,0.00,,---,0.00,VWS V14.00,2013-06-19 07:27:00,
2013-06-19 03:28:00,52.8,40.2,29.99,NE,47,0.0,7.0,62,0.00,,---,0.00,VWS V14.00,2013-06-19 07:28:00,
2013-06-19 03:32:00,52.8,40.2,29.99,ENE,64,0.0,7.0,62,0.00,,---,0.00,VWS V14.00,2013-06-19 07:32:00,
2013-06-19 03:33:00,52.8,40.2,29.99,NE,37,0.0,7.0,62,0.00,,---,0.00,VWS V14.00,2013-06-19 07:33:00,
2013-06-19 03:37:00,52.8,40.2,29.99,NE,41,0.0,7.0,62,0.00,,---,0.00,VWS V14.00,2013-06-19 07:37:00,
2013-06-19 03:38:00,52.8,39.7,29.99,NE,34,0.0,7.0,61,0.00,,---,0.00,VWS V14.00,2013-06-19 07:38:00,
2013-06-19 03:42:00,52.8,39.7,29.99,NNE,24,0.0,7.0,61,0.00,,---,0.00,VWS V14.00,2013-06-19 07:42:00,
2013-06-19 03:43:00,52.6,40.0,29.99,ENE,58,0.0,7.0,62,0.00,,---,0.00,VWS V14.00,2013-06-19 07:43:00,
2013-06-19 03:44:00,52.6,40.0,29.99,NE,44,0.0,7.0,62,0.00,,---,0.00,VWS V14.00,2013-06-19 07:44:00,
2013-06-19 03:47:00,52.6,40.0,29.99,NE,34,0.0,7.0,62,0.00,,---,0.00,VWS V14.00,2013-06-19 07:47:00,
2013-06-19 03:48:00,52.6,40.0,29.99,NE,34,0.0,7.0,62,0.00,,---,0.00,VWS V14.00,2013-06-19 07:48:00,
2013-06-19 03:49:00,52.6,40.0,29.99,NE,34,0.0,7.0,62,0.00,,---,0.00,VWS V14.00,2013-06-19 07:49:00,
2013-06-19 03:52:00,52.5,39.9,29.99,North,0,2.0,7.0,62,0.00,,---,0.00,VWS V14.00,2013-06-19 07:52:00,
2013-06-19 03:53:00,52.6,40.0,29.99,NNE,27,4.0,7.0,62,0.00,,---,0.00,VWS V14.00,2013-06-19 07:53:00,
2013-06-19 03:54:00,52.6,40.0,29.99,NNE,20,0.0,7.0,62,0.00,,---,0.00,VWS V14.00,2013-06-19 07:54:00,
2013-06-19 03:57:00,52.6,40.0,29.99,NE,44,2.0,7.0,62,0.00,,---,0.00,VWS V14.00,2013-06-19 07:57:00,
2013-06-19 03:59:00,52.6,40.0,29.99,NE,40,1.0,7.0,62,0.00,,---,0.00,VWS V14.00,2013-06-19 07:59:00,
2013-06-19 04:00:00,52.6,40.0,29.99,NE,40,2.0,7.0,62,0.00,,---,0.00,VWS V14.00,2013-06-19 08:00:00,
2013-06-19 04:02:00,52.6,40.0,29.99,NE,55,0.0,4.0,62,0.00,,---,0.00,VWS V14.00,2013-06-19 08:02:00,
2013-06-19 04:04:00,52.6,40.0,29.99,NE,55,0.0,4.0,62,0.00,,---,0.00,VWS V14.00,2013-06-19 08:04:00,
2013-06-19 04:05:00,52.5,39.9,29.99,NE,44,0.0,4.0,62,0.00,,---,0.00,VWS V14.00,2013-06-19 08:05:00,
2013-06-19 04:07:00,52.3,40.1,29.99,NE,54,0.0,4.0,63,0.00,,---,0.00,VWS V14.00,2013-06-19 08:07:00,
2013-06-19 04:08:00,52.3,40.1,29.99,NE,54,0.0,4.0,63,0.00,,---,0.00,VWS V14.00,2013-06-19 08:08:00,
2013-06-19 04:09:00,52.2,40.0,29.99,NE,51,4.0,6.0,63,0.00,,---,0.00,VWS V14.00,2013-06-19 08:09:00,
2013-06-19 04:10:00,52.2,40.0,29.99,NE,51,1.0,6.0,63,0.00,,---,0.00,VWS V14.00,2013-06-19 08:10:00,
2013-06-19 04:12:00,52.2,40.0,29.99,NE,48,0.0,6.0,63,0.00,,---,0.00,VWS V14.00,2013-06-19 08:12:00,
2013-06-19 04:13:00,52.2,40.0,29.99,NE,48,0.0,6.0,63,0.00,,---,0.00,VWS V14.00,2013-06-19 08:13:00,
2013-06-19 04:14:00,52.2,40.0,29.99,NE,48,1.0,6.0,63,0.00,,---,0.00,VWS V14.00,2013-06-19 08:14:00,
2013-06-19 04:15:00,52.2,40.0,29.99,NE,48,0.0,6.0,63,0.00,,---,0.00,VWS V14.00,2013-06-19 08:15:00,
2013-06-19 04:17:00,52.2,40.0,29.99,NE,44,1.0,6.0,63,0.00,,---,0.00,VWS V14.00,2013-06-19 08:17:00,
2013-06-19 04:18:00,52.2,40.0,29.99,NE,44,2.0,6.0,63,0.00,,---,0.00,VWS V14.00,2013-06-19 08:18:00,
2013-06-19 04:20:00,52.2,40.4,29.99,ENE,61,0.0,6.0,64,0.00,,---,0.00,VWS V14.00,2013-06-19 08:20:00,
2013-06-19 04:21:00,52.0,40.2,29.99,ENE,61,0.0,6.0,64,0.00,,---,0.00,VWS V14.00,2013-06-19 08:21:00,
2013-06-19 04:23:00,52.0,40.2,29.99,NE,40,1.0,6.0,64,0.00,,---,0.00,VWS V14.00,2013-06-19 08:23:00,
2013-06-19 04:26:00,52.0,40.2,29.99,NE,37,0.0,6.0,64,0.00,,---,0.00,VWS V14.00,2013-06-19 08:26:00,
2013-06-19 04:28:00,51.9,40.5,29.99,NE,44,4.0,6.0,65,0.00,,---,0.00,VWS V14.00,2013-06-19 08:28:00,
2013-06-19 04:31:00,51.7,40.7,30.00,NE,48,1.0,6.0,66,0.00,,---,0.00,VWS V14.00,2013-06-19 08:31:00,
2013-06-19 04:33:00,51.6,40.6,30.00,NE,48,0.0,6.0,66,0.00,,---,0.00,VWS V14.00,2013-06-19 08:33:00,
2013-06-19 04:36:00,51.4,40.8,30.00,NE,48,0.0,6.0,67,0.00,,---,0.00,VWS V14.00,2013-06-19 08:36:00,
2013-06-19 04:37:00,51.4,40.8,30.00,NE,48,0.0,6.0,67,0.00,,---,0.00,VWS V14.00,2013-06-19 08:37:00,
2013-06-19 04:38:00,51.3,40.7,30.00,NE,48,0.0,6.0,67,0.00,,---,0.00,VWS V14.00,2013-06-19 08:38:00,
2013-06-19 04:41:00,51.3,41.1,30.00,NE,44,0.0,6.0,68,0.00,,---,0.00,VWS V14.00,2013-06-19 08:41:00,
2013-06-19 04:42:00,51.3,41.1,30.00,NE,48,0.0,6.0,68,0.00,,---,0.00,VWS V14.00,2013-06-19 08:42:00,
2013-06-19 04:43:00,51.3,40.7,30.00,NE,48,0.0,6.0,67,0.00,,---,0.00,VWS V14.00,2013-06-19 08:43:00,
2013-06-19 04:47:00,51.1,40.9,30.00,NE,55,0.0,6.0,68,0.00,,---,0.00,VWS V14.00,2013-06-19 08:47:00,
2013-06-19 04:48:00,51.1,40.9,30.00,NE,55,0.0,6.0,68,0.00,,---,0.00,VWS V14.00,2013-06-19 08:48:00,
2013-06-19 04:49:00,51.1,40.9,30.00,NE,55,0.0,6.0,68,0.00,,---,0.00,VWS V14.00,2013-06-19 08:49:00,
2013-06-19 04:52:00,51.1,40.9,30.00,NE,48,0.0,6.0,68,0.00,,---,0.00,VWS V14.00,2013-06-19 08:52:00,
2013-06-19 04:53:00,51.1,40.9,30.00,NE,51,0.0,6.0,68,0.00,,---,0.00,VWS V14.00,2013-06-19 08:53:00,
2013-06-19 04:54:00,51.1,40.9,30.00,NE,51,0.0,6.0,68,0.00,,---,0.00,VWS V14.00,2013-06-19 08:54:00,
2013-06-19 04:57:00,51.1,40.9,30.00,NE,47,1.0,6.0,68,0.00,,---,0.00,VWS V14.00,2013-06-19 08:57:00,
2013-06-19 04:59:00,51.1,41.3,30.00,NE,47,0.0,6.0,69,0.00,,---,0.00,VWS V14.00,2013-06-19 08:59:00,
2013-06-19 05:02:00,51.0,41.2,30.00,NE,47,0.0,0.0,69,0.00,,---,0.00,VWS V14.00,2013-06-19 09:02:00,
2013-06-19 05:04:00,50.8,41.4,30.00,NE,47,0.0,0.0,70,0.00,,---,0.00,VWS V14.00,2013-06-19 09:04:00,
2013-06-19 05:07:00,50.7,41.3,30.00,NE,47,0.0,0.0,70,0.00,,---,0.00,VWS V14.00,2013-06-19 09:07:00,
2013-06-19 05:08:00,50.5,41.5,30.00,NE,47,0.0,0.0,71,0.00,,---,0.00,VWS V14.00,2013-06-19 09:08:00,
2013-06-19 05:09:00,50.5,41.5,30.00,NE,47,0.0,0.0,71,0.00,,---,0.00,VWS V14.00,2013-06-19 09:09:00,
2013-06-19 05:10:00,50.5,41.5,30.00,NE,47,0.0,0.0,71,0.00,,---,0.00,VWS V14.00,2013-06-19 09:10:00,
2013-06-19 05:12:00,50.5,41.5,30.00,NNE,31,2.0,4.0,71,0.00,,---,0.00,VWS V14.00,2013-06-19 09:12:00,
2013-06-19 05:13:00,50.5,41.8,30.00,NNE,31,0.0,4.0,72,0.00,,---,0.00,VWS V14.00,2013-06-19 09:13:00,
2013-06-19 05:14:00,50.5,41.5,30.00,NNE,31,0.0,4.0,71,0.00,,---,0.00,VWS V14.00,2013-06-19 09:14:00,
2013-06-19 05:15:00,50.5,41.5,30.00,NNE,31,0.0,4.0,71,0.00,,---,0.00,VWS V14.00,2013-06-19 09:15:00,
2013-06-19 05:17:00,50.5,41.8,30.00,NNE,30,4.0,6.0,72,0.00,,---,0.00,VWS V14.00,2013-06-19 09:17:00,
2013-06-19 05:18:00,50.5,41.8,30.00,NNE,31,2.0,6.0,72,0.00,,---,0.00,VWS V14.00,2013-06-19 09:18:00,
2013-06-19 05:19:00,50.7,41.7,30.00,NNE,16,0.0,6.0,71,0.00,,---,0.00,VWS V14.00,2013-06-19 09:19:00,
2013-06-19 05:20:00,50.7,41.7,30.00,NNE,16,2.0,6.0,71,0.00,,---,0.00,VWS V14.00,2013-06-19 09:20:00,
2013-06-19 05:22:00,50.7,41.7,30.00,NNE,17,0.0,6.0,71,0.00,,---,0.00,VWS V14.00,2013-06-19 09:22:00,
2013-06-19 05:23:00,50.7,41.7,30.00,NNE,20,0.0,6.0,71,0.00,,---,0.00,VWS V14.00,2013-06-19 09:23:00,
2013-06-19 05:24:00,50.7,41.7,30.00,NNE,20,0.0,6.0,71,0.00,,---,0.00,VWS V14.00,2013-06-19 09:24:00,
2013-06-19 05:25:00,50.7,41.7,30.00,NNE,20,0.0,6.0,71,0.00,,---,0.00,VWS V14.00,2013-06-19 09:25:00,
2013-06-19 05:28:00,50.8,42.1,30.00,NNE,20,0.0,6.0,72,0.00,,---,0.00,VWS V14.00,2013-06-19 09:28:00,
2013-06-19 05:29:00,50.7,42.0,30.00,NNE,20,0.0,6.0,72,0.00,,---,0.00,VWS V14.00,2013-06-19 09:29:00,
2013-06-19 05:30:00,50.7,42.0,30.00,NNE,31,2.0,6.0,72,0.00,,---,0.00,VWS V14.00,2013-06-19 09:30:00,
2013-06-19 05:33:00,50.7,42.0,30.01,NE,34,0.0,6.0,72,0.00,,---,0.00,VWS V14.00,2013-06-19 09:33:00,
2013-06-19 05:34:00,50.7,42.0,30.01,NE,34,0.0,6.0,72,0.00,,---,0.00,VWS V14.00,2013-06-19 09:34:00,
2013-06-19 05:35:00,50.8,42.1,30.01,NNE,31,2.0,6.0,72,0.00,,---,0.00,VWS V14.00,2013-06-19 09:35:00,
2013-06-19 05:38:00,50.8,42.1,30.01,NNE,30,0.0,6.0,72,0.00,,---,0.00,VWS V14.00,2013-06-19 09:38:00,
2013-06-19 05:39:00,50.8,42.1,30.01,NNE,30,1.0,6.0,72,0.00,,---,0.00,VWS V14.00,2013-06-19 09:39:00,
2013-06-19 05:40:00,50.8,42.1,30.01,NE,48,0.0,6.0,72,0.00,,---,0.00,VWS V14.00,2013-06-19 09:40:00,
2013-06-19 05:43:00,50.8,42.1,30.01,NE,44,0.0,6.0,72,0.00,,---,0.00,VWS V14.00,2013-06-19 09:43:00,
2013-06-19 05:44:00,50.8,42.1,30.01,NE,41,0.0,6.0,72,0.00,,---,0.00,VWS V14.00,2013-06-19 09:44:00,
2013-06-19 05:45:00,50.8,42.1,30.01,NE,44,0.0,6.0,72,0.00,,---,0.00,VWS V14.00,2013-06-19 09:45:00,
2013-06-19 05:46:00,50.8,42.1,30.01,NE,47,0.0,6.0,72,0.00,,---,0.00,VWS V14.00,2013-06-19 09:46:00,
2013-06-19 05:48:00,50.7,42.0,30.01,NE,47,0.0,6.0,72,0.00,,---,0.00,VWS V14.00,2013-06-19 09:48:00,
2013-06-19 05:49:00,50.7,42.0,30.01,NE,48,0.0,6.0,72,0.00,,---,0.00,VWS V14.00,2013-06-19 09:49:00,
2013-06-19 05:50:00,50.7,42.0,30.01,NE,48,0.0,6.0,72,0.00,,---,0.00,VWS V14.00,2013-06-19 09:50:00,
2013-06-19 05:51:00,50.7,42.4,30.01,NE,48,0.0,6.0,73,0.00,,---,0.00,VWS V14.00,2013-06-19 09:51:00,
2013-06-19 05:54:00,50.7,42.4,30.01,NE,44,0.0,6.0,73,0.00,,---,0.00,VWS V14.00,2013-06-19 09:54:00,
2013-06-19 05:55:00,50.7,42.4,30.01,NE,44,0.0,6.0,73,0.00,,---,0.00,VWS V14.00,2013-06-19 09:55:00,
2013-06-19 05:56:00,50.7,42.4,30.01,NE,44,0.0,6.0,73,0.00,,---,0.00,VWS V14.00,2013-06-19 09:56:00,
2013-06-19 05:59:00,50.8,42.5,30.01,NE,40,0.0,6.0,73,0.00,,---,0.00,VWS V14.00,2013-06-19 09:59:00,
2013-06-19 06:00:00,50.8,42.5,30.01,NE,41,0.0,6.0,73,0.00,,---,0.00,VWS V14.00,2013-06-19 10:00:00,
2013-06-19 06:01:00,50.8,42.5,30.02,NNE,23,0.0,6.0,73,0.00,,---,0.00,VWS V14.00,2013-06-19 10:01:00,
2013-06-19 06:04:00,51.0,42.7,30.02,NNE,30,0.0,0.0,73,0.00,,---,0.00,VWS V14.00,2013-06-19 10:04:00,
2013-06-19 06:05:00,51.0,42.7,30.02,NNE,30,0.0,0.0,73,0.00,,---,0.00,VWS V14.00,2013-06-19 10:05:00,
2013-06-19 06:06:00,51.0,42.7,30.02,NNE,30,0.0,0.0,73,0.00,,---,0.00,VWS V14.00,2013-06-19 10:06:00,
2013-06-19 06:10:00,50.8,42.5,30.02,NE,34,0.0,0.0,73,0.00,,---,0.00,VWS V14.00,2013-06-19 10:10:00,
2013-06-19 06:11:00,50.8,42.8,30.02,ENE,71,0.0,0.0,74,0.00,,---,0.00,VWS V14.00,2013-06-19 10:11:00,
2013-06-19 06:15:00,50.8,42.8,30.02,NE,51,0.0,4.0,74,0.00,,---,0.00,VWS V14.00,2013-06-19 10:15:00,
2013-06-19 06:16:00,50.8,42.8,30.02,NE,51,0.0,4.0,74,0.00,,---,0.00,VWS V14.00,2013-06-19 10:16:00,
2013-06-19 06:20:00,50.7,43.1,30.02,NNE,31,0.0,7.0,75,0.00,,---,0.00,VWS V14.00,2013-06-19 10:20:00,
2013-06-19 06:21:00,50.8,43.2,30.02,NNE,31,1.0,7.0,75,0.00,,---,0.00,VWS V14.00,2013-06-19 10:21:00,
2013-06-19 06:25:00,51.0,43.0,30.02,NE,41,0.0,7.0,74,0.00,,---,0.00,VWS V14.00,2013-06-19 10:25:00,
2013-06-19 06:26:00,51.0,43.0,30.02,NE,41,0.0,7.0,74,0.00,,---,0.00,VWS V14.00,2013-06-19 10:26:00,
2013-06-19 06:30:00,51.0,43.0,30.03,NE,48,0.0,7.0,74,0.00,,---,0.00,VWS V14.00,2013-06-19 10:30:00,
2013-06-19 06:31:00,51.1,43.1,30.03,NE,48,0.0,7.0,74,0.00,,---,0.00,VWS V14.00,2013-06-19 10:31:00,
2013-06-19 06:32:00,51.1,43.5,30.03,NE,40,2.0,7.0,75,0.00,,---,0.00,VWS V14.00,2013-06-19 10:32:00,
2013-06-19 06:35:00,51.3,43.3,30.03,NE,41,0.0,7.0,74,0.00,,---,0.00,VWS V14.00,2013-06-19 10:35:00,
2013-06-19 06:36:00,51.3,43.3,30.03,NE,41,0.0,7.0,74,0.00,,---,0.00,VWS V14.00,2013-06-19 10:36:00,
2013-06-19 06:37:00,51.3,43.3,30.03,NE,37,1.0,7.0,74,0.00,,---,0.00,VWS V14.00,2013-06-19 10:37:00,
2013-06-19 06:41:00,51.4,43.8,30.03,NE,34,0.0,7.0,75,0.00,,---,0.00,VWS V14.00,2013-06-19 10:41:00,
2013-06-19 06:42:00,51.4,43.8,30.03,NE,37,0.0,7.0,75,0.00,,---,0.00,VWS V14.00,2013-06-19 10:42:00,
2013-06-19 06:46:00,51.6,43.6,30.03,NE,41,0.0,7.0,74,0.00,,---,0.00,VWS V14.00,2013-06-19 10:46:00,
2013-06-19 06:47:00,51.6,43.6,30.03,NE,41,1.0,7.0,74,0.00,,---,0.00,VWS V14.00,2013-06-19 10:47:00,
2013-06-19 06:51:00,51.9,43.9,30.03,NE,47,0.0,7.0,74,0.00,,---,0.00,VWS V14.00,2013-06-19 10:51:00,
2013-06-19 06:52:00,51.9,43.9,30.03,NE,55,0.0,7.0,74,0.00,,---,0.00,VWS V14.00,2013-06-19 10:52:00,
2013-06-19 06:56:00,52.0,44.0,30.03,NE,44,0.0,7.0,74,0.00,,---,0.00,VWS V14.00,2013-06-19 10:56:00,
2013-06-19 06:57:00,52.0,44.0,30.03,NE,47,0.0,7.0,74,0.00,,---,0.00,VWS V14.00,2013-06-19 10:57:00,
2013-06-19 06:58:00,52.2,44.2,30.03,NE,47,0.0,7.0,74,0.00,,---,0.00,VWS V14.00,2013-06-19 10:58:00,
2013-06-19 07:01:00,52.3,44.3,30.04,NE,51,0.0,7.0,74,0.00,,---,0.00,VWS V14.00,2013-06-19 11:01:00,
2013-06-19 07:02:00,52.3,43.9,30.04,NE,51,0.0,0.0,73,0.00,,---,0.00,VWS V14.00,2013-06-19 11:02:00,
2013-06-19 07:03:00,52.5,44.1,30.04,NE,48,4.0,4.0,73,0.00,,---,0.00,VWS V14.00,2013-06-19 11:03:00,
2013-06-19 07:06:00,52.6,44.2,30.04,ENE,62,0.0,6.0,73,0.00,,---,0.00,VWS V14.00,2013-06-19 11:06:00,
2013-06-19 07:07:00,52.8,44.4,30.04,NNE,31,0.0,6.0,73,0.00,,---,0.00,VWS V14.00,2013-06-19 11:07:00,
2013-06-19 07:08:00,52.8,44.4,30.04,NE,37,0.0,6.0,73,0.00,,---,0.00,VWS V14.00,2013-06-19 11:08:00,
2013-06-19 07:11:00,52.9,44.1,30.04,ENE,71,0.0,6.0,72,0.00,,---,0.00,VWS V14.00,2013-06-19 11:11:00,
2013-06-19 07:12:00,53.1,44.3,30.04,ENE,75,2.0,6.0,72,0.00,,---,0.00,VWS V14.00,2013-06-19 11:12:00,
2013-06-19 07:13:00,53.1,44.3,30.04,NE,41,0.0,6.0,72,0.00,,---,0.00,VWS V14.00,2013-06-19 11:13:00,
2013-06-19 07:17:00,53.3,44.5,30.05,NNE,31,4.0,7.0,72,0.00,,---,0.00,VWS V14.00,2013-06-19 11:17:00,
2013-06-19 07:18:00,53.3,44.5,30.05,ENE,65,0.0,7.0,72,0.00,,---,0.00,VWS V14.00,2013-06-19 11:18:00,
2013-06-19 07:22:00,53.6,44.8,30.05,ENE,71,1.0,7.0,72,0.00,,---,0.00,VWS V14.00,2013-06-19 11:22:00,
2013-06-19 07:23:00,53.8,45.0,30.05,ENE,65,0.0,7.0,72,0.00,,---,0.00,VWS V14.00,2013-06-19 11:23:00,
2013-06-19 07:27:00,53.9,45.1,30.05,ENE,72,0.0,7.0,72,0.00,,---,0.00,VWS V14.00,2013-06-19 11:27:00,
2013-06-19 07:28:00,53.9,45.1,30.05,East,92,0.0,7.0,72,0.00,,---,0.00,VWS V14.00,2013-06-19 11:28:00,
2013-06-19 07:32:00,54.2,45.0,30.05,ENE,78,1.0,8.0,71,0.00,,---,0.00,VWS V14.00,2013-06-19 11:32:00,
2013-06-19 07:33:00,54.2,45.0,30.05,East,89,1.0,8.0,71,0.00,,---,0.00,VWS V14.00,2013-06-19 11:33:00,
2013-06-19 07:37:00,54.5,45.3,30.05,ENE,75,1.0,8.0,71,0.00,,---,0.00,VWS V14.00,2013-06-19 11:37:00,
2013-06-19 07:38:00,54.5,44.9,30.05,NE,44,6.0,9.0,70,0.00,,---,0.00,VWS V14.00,2013-06-19 11:38:00,
2013-06-19 07:39:00,54.7,45.1,30.05,ENE,58,7.0,9.0,70,0.00,,---,0.00,VWS V14.00,2013-06-19 11:39:00,
2013-06-19 07:42:00,54.8,45.2,30.05,ENE,72,4.0,9.0,70,0.00,,---,0.00,VWS V14.00,2013-06-19 11:42:00,
2013-06-19 07:43:00,54.8,45.2,30.05,ENE,72,0.0,9.0,70,0.00,,---,0.00,VWS V14.00,2013-06-19 11:43:00,
2013-06-19 07:44:00,54.7,45.1,30.05,ENE,78,6.0,9.0,70,0.00,,---,0.00,VWS V14.00,2013-06-19 11:44:00,
2013-06-19 07:47:00,54.8,44.8,30.05,ENE,62,0.0,9.0,69,0.00,,---,0.00,VWS V14.00,2013-06-19 11:47:00,
2013-06-19 07:48:00,54.8,44.8,30.05,East,82,9.0,11.0,69,0.00,,---,0.00,VWS V14.00,2013-06-19 11:48:00,
2013-06-19 07:49:00,54.8,44.8,30.05,NE,34,6.0,11.0,69,0.00,,---,0.00,VWS V14.00,2013-06-19 11:49:00,
2013-06-19 07:52:00,55.1,45.1,30.05,ENE,62,1.0,11.0,69,0.00,,---,0.00,VWS V14.00,2013-06-19 11:52:00,
2013-06-19 07:53:00,55.1,45.1,30.05,East,85,6.0,11.0,69,0.00,,---,0.00,VWS V14.00,2013-06-19 11:53:00,
2013-06-19 07:54:00,55.3,45.3,30.05,ENE,71,7.0,11.0,69,0.00,,---,0.00,VWS V14.00,2013-06-19 11:54:00,
2013-06-19 07:57:00,55.4,45.4,30.05,East,82,8.0,11.0,69,0.00,,---,0.00,VWS V14.00,2013-06-19 11:57:00,
2013-06-19 07:58:00,55.6,45.2,30.05,East,79,7.0,11.0,68,0.00,,---,0.00,VWS V14.00,2013-06-19 11:58:00,
2013-06-19 07:59:00,55.6,45.2,30.05,East,82,1.0,11.0,68,0.00,,---,0.00,VWS V14.00,2013-06-19 11:59:00,
2013-06-19 08:00:00,55.6,45.2,30.05,ENE,71,0.0,11.0,68,0.00,,---,0.00,VWS V14.00,2013-06-19 12:00:00,
2013-06-19 08:03:00,55.7,45.7,30.05,NE,55,0.0,8.0,69,0.00,,---,0.00,VWS V14.00,2013-06-19 12:03:00,
2013-06-19 08:04:00,55.9,45.9,30.05,ENE,75,0.0,8.0,69,0.00,,---,0.00,VWS V14.00,2013-06-19 12:04:00,
2013-06-19 08:05:00,55.9,45.9,30.05,East,85,1.0,8.0,69,0.00,,---,0.00,VWS V14.00,2013-06-19 12:05:00,
2013-06-19 08:08:00,56.2,46.2,30.05,ESE,106,4.0,8.0,69,0.00,,---,0.00,VWS V14.00,2013-06-19 12:08:00,
2013-06-19 08:09:00,56.2,46.2,30.05,East,82,0.0,8.0,69,0.00,,---,0.00,VWS V14.00,2013-06-19 12:09:00,
2013-06-19 08:10:00,56.3,46.3,30.05,ENE,75,2.0,8.0,69,0.00,,---,0.00,VWS V14.00,2013-06-19 12:10:00,
2013-06-19 08:13:00,56.5,46.1,30.05,ENE,65,1.0,8.0,68,0.00,,---,0.00,VWS V14.00,2013-06-19 12:13:00,
2013-06-19 08:14:00,56.6,46.2,30.05,ENE,72,0.0,8.0,68,0.00,,---,0.00,VWS V14.00,2013-06-19 12:14:00,
2013-06-19 08:15:00,56.6,46.2,30.05,NE,51,1.0,8.0,68,0.00,,---,0.00,VWS V14.00,2013-06-19 12:15:00,
2013-06-19 08:18:00,56.7,46.3,30.05,ENE,65,0.0,8.0,68,0.00,,---,0.00,VWS V14.00,2013-06-19 12:18:00,
2013-06-19 08:19:00,56.9,46.5,30.05,ENE,65,0.0,8.0,68,0.00,,---,0.00,VWS V14.00,2013-06-19 12:19:00,
2013-06-19 08:20:00,57.0,46.6,30.05,NE,55,2.0,8.0,68,0.00,,---,0.00,VWS V14.00,2013-06-19 12:20:00,
2013-06-19 08:23:00,57.2,46.4,30.05,ENE,78,7.0,8.0,67,0.00,,---,0.00,VWS V14.00,2013-06-19 12:23:00,
2013-06-19 08:24:00,57.3,46.5,30.05,NE,47,4.0,8.0,67,0.00,,---,0.00,VWS V14.00,2013-06-19 12:24:00,
2013-06-19 08:25:00,57.3,46.0,30.05,ENE,68,4.0,8.0,66,0.00,,---,0.00,VWS V14.00,2013-06-19 12:25:00,
2013-06-19 08:28:00,57.5,46.2,30.05,ENE,75,9.0,9.0,66,0.00,,---,0.00,VWS V14.00,2013-06-19 12:28:00,
2013-06-19 08:29:00,57.5,46.2,30.05,ENE,69,7.0,9.0,66,0.00,,---,0.00,VWS V14.00,2013-06-19 12:29:00,
2013-06-19 08:30:00,57.5,46.2,30.05,ENE,69,7.0,9.0,66,0.00,,---,0.00,VWS V14.00,2013-06-19 12:30:00,
2013-06-19 08:33:00,58.0,46.7,30.06,ENE,64,0.0,9.0,66,0.00,,---,0.00,VWS V14.00,2013-06-19 12:33:00,
2013-06-19 08:34:00,58.0,46.3,30.06,NE,48,0.0,9.0,65,0.00,,---,0.00,VWS V14.00,2013-06-19 12:34:00,
2013-06-19 08:35:00,58.1,46.4,30.06,NE,55,4.0,9.0,65,0.00,,---,0.00,VWS V14.00,2013-06-19 12:35:00,
2013-06-19 08:38:00,58.3,46.6,30.06,ENE,72,4.0,9.0,65,0.00,,---,0.00,VWS V14.00,2013-06-19 12:38:00,
2013-06-19 08:39:00,58.3,46.6,30.06,SE,134,0.0,9.0,65,0.00,,---,0.00,VWS V14.00,2013-06-19 12:39:00,
2013-06-19 08:40:00,58.3,46.6,30.06,NE,55,0.0,9.0,65,0.00,,---,0.00,VWS V14.00,2013-06-19 12:40:00,
2013-06-19 08:43:00,58.6,46.9,30.06,ESE,103,8.0,10.0,65,0.00,,---,0.00,VWS V14.00,2013-06-19 12:43:00,
2013-06-19 08:44:00,58.7,47.0,30.06,ESE,107,1.0,10.0,65,0.00,,---,0.00,VWS V14.00,2013-06-19 12:44:00,
2013-06-19 08:45:00,58.7,47.0,30.06,ENE,72,1.0,10.0,65,0.00,,---,0.00,VWS V14.00,2013-06-19 12:45:00,
2013-06-19 08:48:00,59.0,46.8,30.06,East,86,1.0,10.0,64,0.00,,---,0.00,VWS V14.00,2013-06-19 12:48:00,
2013-06-19 08:49:00,59.0,47.3,30.06,East,79,1.0,10.0,65,0.00,,---,0.00,VWS V14.00,2013-06-19 12:49:00,
2013-06-19 08:50:00,59.0,47.3,30.06,East,79,7.0,10.0,65,0.00,,---,0.00,VWS V14.00,2013-06-19 12:50:00,
2013-06-19 08:53:00,59.3,47.5,30.06,East,89,0.0,10.0,65,0.00,,---,0.00,VWS V14.00,2013-06-19 12:53:00,
2013-06-19 08:55:00,59.3,47.5,30.06,ENE,62,0.0,10.0,65,0.00,,---,0.00,VWS V14.00,2013-06-19 12:55:00,
2013-06-19 08:59:00,59.6,47.8,30.06,ENE,78,4.0,10.0,65,0.00,,---,0.00,VWS V14.00,2013-06-19 12:59:00,
2013-06-19 09:00:00,59.6,47.4,30.06,ENE,65,7.0,10.0,64,0.00,,---,0.00,VWS V14.00,2013-06-19 13:00:00,
2013-06-19 09:01:00,59.6,47.4,30.06,ENE,71,0.0,10.0,64,0.00,,---,0.00,VWS V14.00,2013-06-19 13:01:00,
2013-06-19 09:04:00,59.9,47.7,30.06,East,89,1.0,7.0,64,0.00,,---,0.00,VWS V14.00,2013-06-19 13:04:00,
2013-06-19 09:05:00,59.9,47.3,30.06,East,79,0.0,7.0,63,0.00,,---,0.00,VWS V14.00,2013-06-19 13:05:00,
2013-06-19 09:06:00,60.1,47.9,30.06,NE,44,4.0,7.0,64,0.00,,---,0.00,VWS V14.00,2013-06-19 13:06:00,
2013-06-19 09:09:00,59.9,46.9,30.06,NE,37,0.0,8.0,62,0.00,,---,0.00,VWS V14.00,2013-06-19 13:09:00,
2013-06-19 09:10:00,59.9,46.9,30.06,NE,44,0.0,8.0,62,0.00,,---,0.00,VWS V14.00,2013-06-19 13:10:00,
2013-06-19 09:11:00,60.1,47.0,30.06,ENE,61,0.0,8.0,62,0.00,,---,0.00,VWS V14.00,2013-06-19 13:11:00,
2013-06-19 09:14:00,60.2,47.6,30.06,ENE,65,0.0,8.0,63,0.00,,---,0.00,VWS V14.00,2013-06-19 13:14:00,
2013-06-19 09:15:00,60.2,48.0,30.06,ENE,65,0.0,8.0,64,0.00,,---,0.00,VWS V14.00,2013-06-19 13:15:00,
2013-06-19 09:16:00,60.4,47.8,30.07,ENE,69,0.0,8.0,63,0.00,,---,0.00,VWS V14.00,2013-06-19 13:16:00,
2013-06-19 09:19:00,60.5,47.9,30.07,ENE,75,6.0,8.0,63,0.00,,---,0.00,VWS V14.00,2013-06-19 13:19:00,
2013-06-19 09:20:00,60.7,48.0,30.07,East,79,6.0,8.0,63,0.00,,---,0.00,VWS V14.00,2013-06-19 13:20:00,
2013-06-19 09:21:00,60.7,48.0,30.07,East,79,2.0,8.0,63,0.00,,---,0.00,VWS V14.00,2013-06-19 13:21:00,
2013-06-19 09:24:00,60.7,48.0,30.07,East,79,1.0,8.0,63,0.00,,---,0.00,VWS V14.00,2013-06-19 13:24:00,
2013-06-19 09:25:00,60.9,48.2,30.07,ENE,78,0.0,8.0,63,0.00,,---,0.00,VWS V14.00,2013-06-19 13:25:00,
2013-06-19 09:26:00,60.9,48.2,30.07,ENE,75,1.0,8.0,63,0.00,,---,0.00,VWS V14.00,2013-06-19 13:26:00,
2013-06-19 09:30:00,61.2,47.7,30.07,East,82,0.0,8.0,61,0.00,,---,0.00,VWS V14.00,2013-06-19 13:30:00,
2013-06-19 09:31:00,61.3,48.2,30.07,NE,47,0.0,8.0,62,0.00,,---,0.00,VWS V14.00,2013-06-19 13:31:00,
2013-06-19 09:35:00,61.3,48.2,30.07,East,88,4.0,8.0,62,0.00,,---,0.00,VWS V14.00,2013-06-19 13:35:00,
2013-06-19 09:36:00,61.5,48.4,30.07,East,86,4.0,8.0,62,0.00,,---,0.00,VWS V14.00,2013-06-19 13:36:00,
2013-06-19 09:37:00,61.6,48.9,30.07,ESE,112,0.0,8.0,63,0.00,,---,0.00,VWS V14.00,2013-06-19 13:37:00,
2013-06-19 09:40:00,61.8,48.7,30.07,ENE,58,0.0,8.0,62,0.00,,---,0.00,VWS V14.00,2013-06-19 13:40:00,
2013-06-19 09:41:00,61.8,48.7,30.07,ESE,102,6.0,8.0,62,0.00,,---,0.00,VWS V14.00,2013-06-19 13:41:00,
2013-06-19 09:42:00,61.8,48.7,30.07,East,82,0.0,8.0,62,0.00,,---,0.00,VWS V14.00,2013-06-19 13:42:00,
2013-06-19 09:45:00,61.8,48.7,30.07,ENE,71,0.0,8.0,62,0.00,,---,0.00,VWS V14.00,2013-06-19 13:45:00,
2013-06-19 09:46:00,61.8,49.1,30.07,ENE,72,0.0,8.0,63,0.00,,---,0.00,VWS V14.00,2013-06-19 13:46:00,
2013-06-19 09:47:00,61.8,49.1,30.07,ENE,72,0.0,8.0,63,0.00,,---,0.00,VWS V14.00,2013-06-19 13:47:00,
2013-06-19 09:50:00,62.0,48.8,30.07,East,79,6.0,8.0,62,0.00,,---,0.00,VWS V14.00,2013-06-19 13:50:00,
2013-06-19 09:51:00,62.0,48.8,30.07,ENE,78,6.0,8.0,62,0.00,,---,0.00,VWS V14.00,2013-06-19 13:51:00,
2013-06-19 09:52:00,62.1,48.5,30.07,ENE,75,0.0,8.0,61,0.00,,---,0.00,VWS V14.00,2013-06-19 13:52:00,
2013-06-19 09:55:00,62.4,49.2,30.07,East,82,1.0,8.0,62,0.00,,---,0.00,VWS V14.00,2013-06-19 13:55:00,
2013-06-19 09:56:00,62.4,49.2,30.07,East,82,0.0,8.0,62,0.00,,---,0.00,VWS V14.00,2013-06-19 13:56:00,
2013-06-19 09:57:00,62.6,49.4,30.07,East,79,0.0,8.0,62,0.00,,---,0.00,VWS V14.00,2013-06-19 13:57:00,
2013-06-19 10:01:00,62.6,49.4,30.06,ENE,68,0.0,8.0,62,0.00,,---,0.00,VWS V14.00,2013-06-19 14:01:00,
2013-06-19 10:02:00,62.7,49.5,30.06,ENE,69,0.0,0.0,62,0.00,,---,0.00,VWS V14.00,2013-06-19 14:02:00,
2013-06-19 10:03:00,62.6,49.4,30.06,ENE,69,0.0,0.0,62,0.00,,---,0.00,VWS V14.00,2013-06-19 14:03:00,
2013-06-19 10:06:00,62.9,50.1,30.06,East,82,6.0,7.0,63,0.00,,---,0.00,VWS V14.00,2013-06-19 14:06:00,
2013-06-19 10:07:00,63.2,50.0,30.06,East,82,0.0,8.0,62,0.00,,---,0.00,VWS V14.00,2013-06-19 14:07:00,
2013-06-19 10:08:00,63.4,50.6,30.06,East,89,0.0,8.0,63,0.00,,---,0.00,VWS V14.00,2013-06-19 14:08:00,
2013-06-19 10:11:00,63.2,49.5,30.06,East,95,0.0,8.0,61,0.00,,---,0.00,VWS V14.00,2013-06-19 14:11:00,
2013-06-19 10:13:00,63.2,49.5,30.06,NE,51,0.0,8.0,61,0.00,,---,0.00,VWS V14.00,2013-06-19 14:13:00,
2013-06-19 10:16:00,63.5,50.7,30.06,ESE,110,0.0,8.0,63,0.00,,---,0.00,VWS V14.00,2013-06-19 14:16:00,
2013-06-19 10:17:00,63.5,50.7,30.06,ESE,110,0.0,8.0,63,0.00,,---,0.00,VWS V14.00,2013-06-19 14:17:00,
2013-06-19 10:18:00,63.5,50.3,30.06,ESE,119,0.0,8.0,62,0.00,,---,0.00,VWS V14.00,2013-06-19 14:18:00,
2013-06-19 10:21:00,63.4,50.2,30.06,East,93,0.0,8.0,62,0.00,,---,0.00,VWS V14.00,2013-06-19 14:21:00,
2013-06-19 10:22:00,63.5,50.3,30.06,East,82,1.0,8.0,62,0.00,,---,0.00,VWS V14.00,2013-06-19 14:22:00,
2013-06-19 10:23:00,63.7,50.0,30.06,East,96,1.0,8.0,61,0.00,,---,0.00,VWS V14.00,2013-06-19 14:23:00,
2013-06-19 10:26:00,63.9,51.1,30.06,East,99,0.0,8.0,63,0.00,,---,0.00,VWS V14.00,2013-06-19 14:26:00,
2013-06-19 10:27:00,63.9,51.1,30.06,East,99,0.0,8.0,63,0.00,,---,0.00,VWS V14.00,2013-06-19 14:27:00,
2013-06-19 10:29:00,63.9,50.2,30.06,East,99,0.0,8.0,61,0.00,,---,0.00,VWS V14.00,2013-06-19 14:29:00,
2013-06-19 10:31:00,63.4,49.7,30.07,East,100,0.0,8.0,61,0.00,,---,0.00,VWS V14.00,2013-06-19 14:31:00,
2013-06-19 10:32:00,63.4,49.7,30.07,East,100,0.0,8.0,61,0.00,,---,0.00,VWS V14.00,2013-06-19 14:32:00,
2013-06-19 10:34:00,63.1,49.0,30.07,East,100,0.0,8.0,60,0.00,,---,0.00,VWS V14.00,2013-06-19 14:34:00,
2013-06-19 10:36:00,63.4,49.7,30.07,ENE,58,0.0,8.0,61,0.00,,---,0.00,VWS V14.00,2013-06-19 14:36:00,
2013-06-19 10:37:00,63.5,49.8,30.07,ENE,61,1.0,8.0,61,0.00,,---,0.00,VWS V14.00,2013-06-19 14:37:00,
2013-06-19 10:39:00,63.9,51.1,30.07,ESE,103,0.0,8.0,63,0.00,,---,0.00,VWS V14.00,2013-06-19 14:39:00,
2013-06-19 10:41:00,64.5,50.8,30.07,ENE,78,0.0,8.0,61,0.00,,---,0.00,VWS V14.00,2013-06-19 14:41:00,
2013-06-19 10:42:00,64.5,50.8,30.07,East,79,7.0,8.0,61,0.00,,---,0.00,VWS V14.00,2013-06-19 14:42:00,
2013-06-19 10:44:00,64.8,51.5,30.07,East,85,2.0,8.0,62,0.00,,---,0.00,VWS V14.00,2013-06-19 14:44:00,
2013-06-19 10:46:00,64.8,50.2,30.06,East,95,0.0,8.0,59,0.00,,---,0.00,VWS V14.00,2013-06-19 14:46:00,
2013-06-19 10:47:00,64.8,50.6,30.06,East,95,0.0,8.0,60,0.00,,---,0.00,VWS V14.00,2013-06-19 14:47:00,
2013-06-19 10:49:00,65.0,51.2,30.06,ESE,116,1.0,8.0,61,0.00,,---,0.00,VWS V14.00,2013-06-19 14:49:00,
2013-06-19 10:52:00,64.8,49.7,30.06,SE,130,0.0,8.0,58,0.00,,---,0.00,VWS V14.00,2013-06-19 14:52:00,
2013-06-19 10:53:00,64.8,51.0,30.06,SSE,151,2.0,8.0,61,0.00,,---,0.00,VWS V14.00,2013-06-19 14:53:00,
2013-06-19 10:54:00,64.8,50.2,30.06,SE,136,0.0,8.0,59,0.00,,---,0.00,VWS V14.00,2013-06-19 14:54:00,
2013-06-19 10:57:00,64.7,50.5,30.06,SE,138,1.0,8.0,60,0.00,,---,0.00,VWS V14.00,2013-06-19 14:57:00,
2013-06-19 10:58:00,64.8,50.2,30.06,ESE,110,0.0,8.0,59,0.00,,---,0.00,VWS V14.00,2013-06-19 14:58:00,
2013-06-19 10:59:00,65.0,51.2,30.06,ESE,110,0.0,8.0,61,0.00,,---,0.00,VWS V14.00,2013-06-19 14:59:00,
2013-06-19 11:02:00,65.3,50.2,30.06,East,82,0.0,0.0,58,0.00,,---,0.00,VWS V14.00,2013-06-19 15:02:00,
2013-06-19 11:03:00,65.6,51.8,30.06,East,82,0.0,0.0,61,0.00,,---,0.00,VWS V14.00,2013-06-19 15:03:00,
2013-06-19 11:04:00,65.6,51.4,30.06,East,82,0.0,0.0,60,0.00,,---,0.00,VWS V14.00,2013-06-19 15:04:00,
2013-06-19 11:07:00,65.8,50.6,30.06,NE,51,0.0,1.0,58,0.00,,---,0.00,VWS V14.00,2013-06-19 15:07:00,
2013-06-19 11:08:00,65.8,50.6,30.06,NE,51,0.0,1.0,58,0.00,,---,0.00,VWS V14.00,2013-06-19 15:08:00,
2013-06-19 11:09:00,65.8,49.7,30.06,NE,44,1.0,4.0,56,0.00,,---,0.00,VWS V14.00,2013-06-19 15:09:00,
2013-06-19 11:12:00,65.5,49.9,30.06,NE,37,0.0,4.0,57,0.00,,---,0.00,VWS V14.00,2013-06-19 15:12:00,
2013-06-19 11:13:00,65.5,49.4,30.06,NE,37,1.0,4.0,56,0.00,,---,0.00,VWS V14.00,2013-06-19 15:13:00,
2013-06-19 11:14:00,65.5,49.4,30.06,NE,37,0.0,4.0,56,0.00,,---,0.00,VWS V14.00,2013-06-19 15:14:00,
2013-06-19 11:15:00,65.5,49.4,30.06,NE,37,0.0,4.0,56,0.00,,---,0.00,VWS V14.00,2013-06-19 15:15:00,
2013-06-19 11:17:00,65.6,50.4,30.06,NNW,330,0.0,4.0,58,0.00,,---,0.00,VWS V14.00,2013-06-19 15:17:00,
2013-06-19 11:18:00,65.8,50.6,30.06,NNW,329,0.0,4.0,58,0.00,,---,0.00,VWS V14.00,2013-06-19 15:18:00,
2013-06-19 11:19:00,66.0,50.8,30.06,North,0,0.0,4.0,58,0.00,,---,0.00,VWS V14.00,2013-06-19 15:19:00,
2013-06-19 11:20:00,66.0,50.8,30.06,North,0,0.0,4.0,58,0.00,,---,0.00,VWS V14.00,2013-06-19 15:20:00,
2013-06-19 11:22:00,66.3,51.6,30.06,East,79,0.0,4.0,59,0.00,,---,0.00,VWS V14.00,2013-06-19 15:22:00,
2013-06-19 11:23:00,66.3,52.0,30.06,East,79,0.0,4.0,60,0.00,,---,0.00,VWS V14.00,2013-06-19 15:23:00,
2013-06-19 11:24:00,66.3,52.0,30.06,East,79,0.0,4.0,60,0.00,,---,0.00,VWS V14.00,2013-06-19 15:24:00,
2013-06-19 11:25:00,66.3,52.0,30.06,East,79,0.0,4.0,60,0.00,,---,0.00,VWS V14.00,2013-06-19 15:25:00,
2013-06-19 11:28:00,66.4,50.7,30.06,East,79,0.0,4.0,57,0.00,,---,0.00,VWS V14.00,2013-06-19 15:28:00,
2013-06-19 11:29:00,66.8,51.1,30.06,East,79,0.0,4.0,57,0.00,,---,0.00,VWS V14.00,2013-06-19 15:29:00,
2013-06-19 11:30:00,66.8,51.1,30.06,East,79,0.0,4.0,57,0.00,,---,0.00,VWS V14.00,2013-06-19 15:30:00,
2013-06-19 11:33:00,66.8,50.1,30.06,NE,47,0.0,4.0,55,0.00,,---,0.00,VWS V14.00,2013-06-19 15:33:00,
2013-06-19 11:35:00,66.8,50.1,30.06,NE,34,0.0,4.0,55,0.00,,---,0.00,VWS V14.00,2013-06-19 15:35:00,
2013-06-19 11:36:00,66.8,51.1,30.06,NE,34,0.0,4.0,57,0.00,,---,0.00,VWS V14.00,2013-06-19 15:36:00,
2013-06-19 11:38:00,67.3,52.0,30.06,NE,44,1.0,6.0,58,0.00,,---,0.00,VWS V14.00,2013-06-19 15:38:00,
2013-06-19 11:40:00,67.8,51.5,30.06,ESE,113,4.0,7.0,56,0.00,,---,0.00,VWS V14.00,2013-06-19 15:40:00,
2013-06-19 11:41:00,67.8,51.1,30.06,ESE,116,0.0,7.0,55,0.00,,---,0.00,VWS V14.00,2013-06-19 15:41:00,
2013-06-19 11:43:00,67.4,50.2,30.06,East,82,1.0,7.0,54,0.00,,---,0.00,VWS V14.00,2013-06-19 15:43:00,
2013-06-19 11:45:00,67.6,51.4,30.06,ENE,75,0.0,7.0,56,0.00,,---,0.00,VWS V14.00,2013-06-19 15:45:00,
2013-06-19 11:46:00,67.6,51.4,30.06,ENE,72,0.0,7.0,56,0.00,,---,0.00,VWS V14.00,2013-06-19 15:46:00,
2013-06-19 11:48:00,67.6,49.9,30.06,NE,44,0.0,7.0,53,0.00,,---,0.00,VWS V14.00,2013-06-19 15:48:00,
2013-06-19 11:50:00,67.6,48.8,30.06,NE,37,0.0,7.0,51,0.00,,---,0.00,VWS V14.00,2013-06-19 15:50:00,
2013-06-19 11:51:00,67.4,48.7,30.06,NE,37,0.0,7.0,51,0.00,,---,0.00,VWS V14.00,2013-06-19 15:51:00,
2013-06-19 11:53:00,67.8,51.1,30.06,NE,37,0.0,7.0,55,0.00,,---,0.00,VWS V14.00,2013-06-19 15:53:00,
2013-06-19 11:55:00,67.9,51.2,30.06,North,0,0.0,7.0,55,0.00,,---,0.00,VWS V14.00,2013-06-19 15:55:00,
2013-06-19 11:56:00,67.9,49.7,30.06,North,0,0.0,7.0,52,0.00,,---,0.00,VWS V14.00,2013-06-19 15:56:00,
2013-06-19 11:58:00,68.3,50.0,30.06,ESE,113,0.0,7.0,52,0.00,,---,0.00,VWS V14.00,2013-06-19 15:58:00,
2013-06-19 12:00:00,68.6,50.8,30.06,SE,138,1.0,7.0,53,0.00,,---,0.00,VWS V14.00,2013-06-19 16:00:00,
2013-06-19 12:01:00,68.9,51.1,30.06,SE,141,4.0,7.0,53,0.00,,---,0.00,VWS V14.00,2013-06-19 16:01:00,
2013-06-19 12:03:00,69.1,52.8,30.06,SE,141,4.0,6.0,56,0.00,,---,0.00,VWS V14.00,2013-06-19 16:03:00,
2013-06-19 12:04:00,69.1,52.3,30.06,SE,143,1.0,6.0,55,0.00,,---,0.00,VWS V14.00,2013-06-19 16:04:00,
2013-06-19 12:05:00,69.1,51.3,30.06,East,82,6.0,7.0,53,0.00,,---,0.00,VWS V14.00,2013-06-19 16:05:00,
2013-06-19 12:06:00,69.1,51.3,30.06,East,79,2.0,8.0,53,0.00,,---,0.00,VWS V14.00,2013-06-19 16:06:00,
2013-06-19 12:08:00,69.3,52.0,30.06,ENE,68,0.0,8.0,54,0.00,,---,0.00,VWS V14.00,2013-06-19 16:08:00,
2013-06-19 12:09:00,69.3,52.5,30.06,ENE,68,0.0,8.0,55,0.00,,---,0.00,VWS V14.00,2013-06-19 16:09:00,
2013-06-19 12:10:00,69.3,52.5,30.06,SE,133,4.0,8.0,55,0.00,,---,0.00,VWS V14.00,2013-06-19 16:10:00,
2013-06-19 12:11:00,69.3,52.5,30.06,ESE,123,1.0,8.0,55,0.00,,---,0.00,VWS V14.00,2013-06-19 16:11:00,
2013-06-19 12:14:00,68.9,50.6,30.06,SE,143,0.0,8.0,52,0.00,,---,0.00,VWS V14.00,2013-06-19 16:14:00,
2013-06-19 12:16:00,68.9,51.6,30.06,SE,143,0.0,8.0,54,0.00,,---,0.00,VWS V14.00,2013-06-19 16:16:00,
2013-06-19 12:17:00,69.1,52.3,30.06,SE,143,0.0,8.0,55,0.00,,---,0.00,VWS V14.00,2013-06-19 16:17:00,
2013-06-19 12:19:00,69.1,52.8,30.06,SE,143,0.0,8.0,56,0.00,,---,0.00,VWS V14.00,2013-06-19 16:19:00,
2013-06-19 12:21:00,68.9,50.6,30.06,SSE,151,0.0,8.0,52,0.00,,---,0.00,VWS V14.00,2013-06-19 16:21:00,
2013-06-19 12:22:00,69.1,52.3,30.06,SSE,151,0.0,8.0,55,0.00,,---,0.00,VWS V14.00,2013-06-19 16:22:00,
2013-06-19 12:24:00,68.4,46.8,30.06,SSE,155,0.0,8.0,46,0.00,,---,0.00,VWS V14.00,2013-06-19 16:24:00,
2013-06-19 12:26:00,68.3,49.0,30.06,SSE,158,0.0,8.0,50,0.00,,---,0.00,VWS V14.00,2013-06-19 16:26:00,
2013-06-19 12:27:00,68.3,49.0,30.06,SSE,158,0.0,8.0,50,0.00,,---,0.00,VWS V14.00,2013-06-19 16:27:00,
2013-06-19 12:29:00,68.3,49.5,30.06,SSE,158,0.0,8.0,51,0.00,,---,0.00,VWS V14.00,2013-06-19 16:29:00,
2013-06-19 12:31:00,68.9,50.6,30.06,SSE,162,0.0,8.0,52,0.00,,---,0.00,VWS V14.00,2013-06-19 16:31:00,
2013-06-19 12:32:00,69.1,50.8,30.06,SSE,162,0.0,8.0,52,0.00,,---,0.00,VWS V14.00,2013-06-19 16:32:00,
2013-06-19 12:34:00,69.4,51.0,30.06,SSE,164,0.0,8.0,52,0.00,,---,0.00,VWS V14.00,2013-06-19 16:34:00,
2013-06-19 12:36:00,69.1,50.8,30.06,ENE,62,0.0,8.0,52,0.00,,---,0.00,VWS V14.00,2013-06-19 16:36:00,
2013-06-19 12:37:00,69.1,50.2,30.06,ENE,78,4.0,8.0,51,0.00,,---,0.00,VWS V14.00,2013-06-19 16:37:00,
2013-06-19 12:39:00,68.9,47.9,30.06,NE,55,0.0,8.0,47,0.00,,---,0.00,VWS V14.00,2013-06-19 16:39:00,
2013-06-19 12:41:00,68.9,47.9,30.06,North,10,2.0,8.0,47,0.00,,---,0.00,VWS V14.00,2013-06-19 16:41:00,
2013-06-19 12:42:00,68.8,47.2,30.06,NNE,24,0.0,8.0,46,0.00,,---,0.00,VWS V14.00,2013-06-19 16:42:00,
2013-06-19 12:43:00,68.6,47.6,30.06,NNE,24,0.0,8.0,47,0.00,,---,0.00,VWS V14.00,2013-06-19 16:43:00,
2013-06-19 12:44:00,68.6,48.7,30.06,NNE,24,0.0,8.0,49,0.00,,---,0.00,VWS V14.00,2013-06-19 16:44:00,
2013-06-19 12:46:00,68.4,46.2,30.06,NNE,24,0.0,8.0,45,0.00,,---,0.00,VWS V14.00,2013-06-19 16:46:00,
2013-06-19 12:48:00,68.3,46.2,30.06,NNE,24,0.0,8.0,45,0.00,,---,0.00,VWS V14.00,2013-06-19 16:48:00,
2013-06-19 12:49:00,68.1,47.1,30.06,North,6,1.0,8.0,47,0.00,,---,0.00,VWS V14.00,2013-06-19 16:49:00,
2013-06-19 12:50:00,68.1,47.1,30.06,North,6,0.0,8.0,47,0.00,,---,0.00,VWS V14.00,2013-06-19 16:50:00,
2013-06-19 12:52:00,68.1,48.8,30.06,North,6,0.0,8.0,50,0.00,,---,0.00,VWS V14.00,2013-06-19 16:52:00,
2013-06-19 12:53:00,68.3,47.9,30.06,NNE,27,2.0,8.0,48,0.00,,---,0.00,VWS V14.00,2013-06-19 16:53:00,
2013-06-19 12:54:00,68.3,47.3,30.06,NNE,30,0.0,8.0,47,0.00,,---,0.00,VWS V14.00,2013-06-19 16:54:00,
2013-06-19 12:55:00,68.4,49.1,30.06,NNW,330,2.0,8.0,50,0.00,,---,0.00,VWS V14.00,2013-06-19 16:55:00,
2013-06-19 12:57:00,69.1,50.8,30.06,North,0,0.0,8.0,52,0.00,,---,0.00,VWS V14.00,2013-06-19 16:57:00,
2013-06-19 12:58:00,69.3,51.5,30.06,NNW,337,1.0,8.0,53,0.00,,---,0.00,VWS V14.00,2013-06-19 16:58:00,
2013-06-19 12:59:00,69.1,49.7,30.06,NW,319,0.0,8.0,50,0.00,,---,0.00,VWS V14.00,2013-06-19 16:59:00,
2013-06-19 13:00:00,69.1,48.6,30.06,NW,319,0.0,8.0,48,0.00,,---,0.00,VWS V14.00,2013-06-19 17:00:00,
2013-06-19 13:02:00,69.1,49.2,30.06,NW,318,0.0,0.0,49,0.00,,---,0.00,VWS V14.00,2013-06-19 17:02:00,
2013-06-19 13:03:00,68.9,49.0,30.06,NW,318,0.0,0.0,49,0.00,,---,0.00,VWS V14.00,2013-06-19 17:03:00,
2013-06-19 13:04:00,68.9,49.0,30.06,NW,318,0.0,0.0,49,0.00,,---,0.00,VWS V14.00,2013-06-19 17:04:00,
2013-06-19 13:06:00,69.3,50.4,30.06,ESE,120,0.0,0.0,51,0.00,,---,0.00,VWS V14.00,2013-06-19 17:06:00,
2013-06-19 13:07:00,69.6,52.2,30.06,ESE,113,0.0,0.0,54,0.00,,---,0.00,VWS V14.00,2013-06-19 17:07:00,
2013-06-19 13:08:00,69.8,52.4,30.06,ENE,58,0.0,0.0,54,0.00,,---,0.00,VWS V14.00,2013-06-19 17:08:00,
2013-06-19 13:09:00,69.9,52.5,30.06,ENE,72,2.0,4.0,54,0.00,,---,0.00,VWS V14.00,2013-06-19 17:09:00,
2013-06-19 13:11:00,70.3,48.6,30.06,ENE,65,0.0,4.0,46,0.00,,---,0.00,VWS V14.00,2013-06-19 17:11:00,
2013-06-19 13:12:00,70.1,47.2,30.06,ENE,65,0.0,4.0,44,0.00,,---,0.00,VWS V14.00,2013-06-19 17:12:00,
2013-06-19 13:13:00,70.1,47.2,30.06,ENE,65,0.0,4.0,44,0.00,,---,0.00,VWS V14.00,2013-06-19 17:13:00,
2013-06-19 13:14:00,70.1,47.8,30.06,ENE,65,0.0,4.0,45,0.00,,---,0.00,VWS V14.00,2013-06-19 17:14:00,
2013-06-19 13:15:00,70.4,48.1,30.06,ENE,69,0.0,4.0,45,0.00,,---,0.00,VWS V14.00,2013-06-19 17:15:00,
2013-06-19 13:16:00,70.4,48.1,30.05,SE,141,0.0,4.0,45,0.00,,---,0.00,VWS V14.00,2013-06-19 17:16:00,
2013-06-19 13:17:00,70.6,49.4,30.05,NE,41,2.0,4.0,47,0.00,,---,0.00,VWS V14.00,2013-06-19 17:17:00,
2013-06-19 13:18:00,70.6,50.0,30.05,NE,41,0.0,4.0,48,0.00,,---,0.00,VWS V14.00,2013-06-19 17:18:00,
2013-06-19 13:19:00,70.6,47.7,30.05,NE,41,0.0,4.0,44,0.00,,---,0.00,VWS V14.00,2013-06-19 17:19:00,
2013-06-19 13:20:00,70.4,48.1,30.05,NE,47,2.0,4.0,45,0.00,,---,0.00,VWS V14.00,2013-06-19 17:20:00,
2013-06-19 13:21:00,70.4,49.2,30.05,NE,55,4.0,4.0,47,0.00,,---,0.00,VWS V14.00,2013-06-19 17:21:00,
2013-06-19 13:23:00,70.3,49.1,30.05,ENE,58,0.0,4.0,47,0.00,,---,0.00,VWS V14.00,2013-06-19 17:23:00,
2013-06-19 13:24:00,70.3,50.3,30.05,SSE,167,0.0,4.0,49,0.00,,---,0.00,VWS V14.00,2013-06-19 17:24:00,
2013-06-19 13:25:00,69.9,49.3,30.05,SSW,196,2.0,6.0,48,0.00,,---,0.00,VWS V14.00,2013-06-19 17:25:00,
2013-06-19 13:26:00,69.6,47.9,30.05,SSW,196,0.0,6.0,46,0.00,,---,0.00,VWS V14.00,2013-06-19 17:26:00,
2013-06-19 13:28:00,69.4,47.2,30.05,SSW,196,0.0,6.0,45,0.00,,---,0.00,VWS V14.00,2013-06-19 17:28:00,
2013-06-19 13:29:00,69.8,48.7,30.05,SSW,196,0.0,6.0,47,0.00,,---,0.00,VWS V14.00,2013-06-19 17:29:00,
2013-06-19 13:30:00,70.4,50.3,30.05,ESE,113,0.0,6.0,49,0.00,,---,0.00,VWS V14.00,2013-06-19 17:30:00,
2013-06-19 13:32:00,70.9,50.2,30.05,ESE,116,0.0,6.0,48,0.00,,---,0.00,VWS V14.00,2013-06-19 17:32:00,
2013-06-19 13:33:00,70.9,50.2,30.05,ESE,116,0.0,6.0,48,0.00,,---,0.00,VWS V14.00,2013-06-19 17:33:00,
2013-06-19 13:34:00,71.1,50.4,30.05,ESE,116,0.0,6.0,48,0.00,,---,0.00,VWS V14.00,2013-06-19 17:34:00,
2013-06-19 13:35:00,71.5,51.9,30.05,East,89,4.0,6.0,50,0.00,,---,0.00,VWS V14.00,2013-06-19 17:35:00,
2013-06-19 13:37:00,71.8,51.6,30.05,East,82,1.0,8.0,49,0.00,,---,0.00,VWS V14.00,2013-06-19 17:37:00,
2013-06-19 13:38:00,72.1,51.9,30.05,SE,130,2.0,8.0,49,0.00,,---,0.00,VWS V14.00,2013-06-19 17:38:00,
2013-06-19 13:39:00,72.1,52.5,30.05,SE,130,0.0,8.0,50,0.00,,---,0.00,VWS V14.00,2013-06-19 17:39:00,
2013-06-19 13:40:00,72.1,49.6,30.05,East,79,6.0,8.0,45,0.00,,---,0.00,VWS V14.00,2013-06-19 17:40:00,
2013-06-19 13:42:00,72.0,51.8,30.05,ESE,102,0.0,8.0,49,0.00,,---,0.00,VWS V14.00,2013-06-19 17:42:00,
2013-06-19 13:43:00,71.8,51.6,30.05,SE,130,0.0,8.0,49,0.00,,---,0.00,VWS V14.00,2013-06-19 17:43:00,
2013-06-19 13:44:00,71.8,51.6,30.05,SE,130,0.0,8.0,49,0.00,,---,0.00,VWS V14.00,2013-06-19 17:44:00,
2013-06-19 13:45:00,71.5,52.4,30.05,SSE,148,0.0,8.0,51,0.00,,---,0.00,VWS V14.00,2013-06-19 17:45:00,
2013-06-19 13:47:00,70.9,50.2,30.05,SE,127,0.0,8.0,48,0.00,,---,0.00,VWS V14.00,2013-06-19 17:47:00,
2013-06-19 13:48:00,70.9,52.4,30.05,SE,127,0.0,8.0,52,0.00,,---,0.00,VWS V14.00,2013-06-19 17:48:00,
2013-06-19 13:49:00,70.9,51.3,30.05,SE,127,0.0,8.0,50,0.00,,---,0.00,VWS V14.00,2013-06-19 17:49:00,
2013-06-19 13:51:00,70.8,52.8,30.05,SE,130,0.0,8.0,53,0.00,,---,0.00,VWS V14.00,2013-06-19 17:51:00,
2013-06-19 13:52:00,70.3,49.7,30.05,SE,145,0.0,8.0,48,0.00,,---,0.00,VWS V14.00,2013-06-19 17:52:00,
2013-06-19 13:54:00,70.3,48.6,30.05,SE,145,0.0,8.0,46,0.00,,---,0.00,VWS V14.00,2013-06-19 17:54:00,
2013-06-19 13:56:00,70.4,48.1,30.05,SE,145,0.0,8.0,45,0.00,,---,0.00,VWS V14.00,2013-06-19 17:56:00,
2013-06-19 13:58:00,70.8,51.8,30.05,WNW,302,0.0,8.0,51,0.00,,---,0.00,VWS V14.00,2013-06-19 17:58:00,
2013-06-19 13:59:00,71.1,52.1,30.05,WNW,302,0.0,8.0,51,0.00,,---,0.00,VWS V14.00,2013-06-19 17:59:00,
2013-06-19 14:01:00,71.3,51.7,30.04,SW,229,0.0,8.0,50,0.00,,---,0.00,VWS V14.00,2013-06-19 18:01:00,
2013-06-19 14:03:00,71.3,47.0,30.04,SE,134,0.0,2.0,42,0.00,,---,0.00,VWS V14.00,2013-06-19 18:03:00,
2013-06-19 14:04:00,71.3,49.5,30.04,SE,138,0.0,2.0,46,0.00,,---,0.00,VWS V14.00,2013-06-19 18:04:00,
2013-06-19 14:05:00,71.6,50.3,30.04,SE,126,4.0,6.0,47,0.00,,---,0.00,VWS V14.00,2013-06-19 18:05:00,
2013-06-19 14:06:00,71.6,49.8,30.04,ESE,123,1.0,6.0,46,0.00,,---,0.00,VWS V14.00,2013-06-19 18:06:00,
2013-06-19 14:08:00,71.3,50.6,30.04,East,89,0.0,6.0,48,0.00,,---,0.00,VWS V14.00,2013-06-19 18:08:00,
2013-06-19 14:09:00,71.3,50.6,30.04,East,89,0.0,6.0,48,0.00,,---,0.00,VWS V14.00,2013-06-19 18:09:00,
2013-06-19 14:10:00,71.3,48.3,30.04,East,89,0.0,6.0,44,0.00,,---,0.00,VWS V14.00,2013-06-19 18:10:00,
2013-06-19 14:11:00,71.8,54.8,30.04,ESE,109,0.0,6.0,55,0.00,,---,0.00,VWS V14.00,2013-06-19 18:11:00,
2013-06-19 14:13:00,71.8,52.2,30.04,ESE,109,0.0,6.0,50,0.00,,---,0.00,VWS V14.00,2013-06-19 18:13:00,
2013-06-19 14:14:00,71.8,52.2,30.04,ESE,109,0.0,6.0,50,0.00,,---,0.00,VWS V14.00,2013-06-19 18:14:00,
2013-06-19 14:15:00,72.1,52.5,30.04,ESE,112,2.0,6.0,50,0.00,,---,0.00,VWS V14.00,2013-06-19 18:15:00,
2013-06-19 14:17:00,72.3,52.6,30.04,ENE,71,0.0,7.0,50,0.00,,---,0.00,VWS V14.00,2013-06-19 18:17:00,
2013-06-19 14:18:00,72.7,53.0,30.04,East,93,0.0,7.0,50,0.00,,---,0.00,VWS V14.00,2013-06-19 18:18:00,
2013-06-19 14:19:00,73.0,52.7,30.04,SSE,154,0.0,7.0,49,0.00,,---,0.00,VWS V14.00,2013-06-19 18:19:00,
2013-06-19 14:20:00,72.8,52.5,30.04,SSE,154,0.0,7.0,49,0.00,,---,0.00,VWS V14.00,2013-06-19 18:20:00,
2013-06-19 14:22:00,72.7,50.8,30.04,SE,127,2.0,7.0,46,0.00,,---,0.00,VWS V14.00,2013-06-19 18:22:00,
2013-06-19 14:23:00,72.7,52.5,30.04,SE,136,0.0,7.0,49,0.00,,---,0.00,VWS V14.00,2013-06-19 18:23:00,
2013-06-19 14:25:00,72.5,51.2,30.04,SSW,199,7.0,8.0,47,0.00,,---,0.00,VWS V14.00,2013-06-19 18:25:00,
2013-06-19 14:26:00,72.5,50.0,30.04,SSE,154,0.0,8.0,45,0.00,,---,0.00,VWS V14.00,2013-06-19 18:26:00,
2013-06-19 14:27:00,72.1,49.6,30.04,SSW,203,4.0,8.0,45,0.00,,---,0.00,VWS V14.00,2013-06-19 18:27:00,
2013-06-19 14:28:00,72.3,49.8,30.04,South,172,0.0,8.0,45,0.00,,---,0.00,VWS V14.00,2013-06-19 18:28:00,
2013-06-19 14:30:00,72.1,49.6,30.04,SSE,157,6.0,8.0,45,0.00,,---,0.00,VWS V14.00,2013-06-19 18:30:00,
2013-06-19 14:31:00,72.1,49.6,30.04,SSE,148,0.0,9.0,45,0.00,,---,0.00,VWS V14.00,2013-06-19 18:31:00,
2013-06-19 14:32:00,72.3,51.0,30.04,SSE,168,1.0,9.0,47,0.00,,---,0.00,VWS V14.00,2013-06-19 18:32:00,
2013-06-19 14:33:00,72.7,50.2,30.04,SE,127,0.0,9.0,45,0.00,,---,0.00,VWS V14.00,2013-06-19 18:33:00,
2013-06-19 14:35:00,73.0,50.4,30.04,ESE,123,0.0,9.0,45,0.00,,---,0.00,VWS V14.00,2013-06-19 18:35:00,
2013-06-19 14:36:00,72.8,51.4,30.04,SE,127,0.0,9.0,47,0.00,,---,0.00,VWS V14.00,2013-06-19 18:36:00,
2013-06-19 14:37:00,72.5,50.0,30.04,SE,127,0.0,9.0,45,0.00,,---,0.00,VWS V14.00,2013-06-19 18:37:00,
2013-06-19 14:38:00,72.3,51.5,30.04,SSE,151,0.0,9.0,48,0.00,,---,0.00,VWS V14.00,2013-06-19 18:38:00,
2013-06-19 14:40:00,72.1,51.3,30.04,South,172,0.0,9.0,48,0.00,,---,0.00,VWS V14.00,2013-06-19 18:40:00,
2013-06-19 14:41:00,72.1,49.0,30.04,SE,141,0.0,9.0,44,0.00,,---,0.00,VWS V14.00,2013-06-19 18:41:00,
2013-06-19 14:42:00,72.0,51.3,30.04,SE,141,0.0,9.0,48,0.00,,---,0.00,VWS V14.00,2013-06-19 18:42:00,
2013-06-19 14:44:00,72.3,52.1,30.04,ESE,102,0.0,9.0,49,0.00,,---,0.00,VWS V14.00,2013-06-19 18:44:00,
2013-06-19 14:45:00,72.8,51.4,30.03,SE,127,2.0,9.0,47,0.00,,---,0.00,VWS V14.00,2013-06-19 18:45:00,
2013-06-19 14:46:00,73.2,50.6,30.03,SSE,147,6.0,9.0,45,0.00,,---,0.00,VWS V14.00,2013-06-19 18:46:00,
2013-06-19 14:48:00,73.3,48.8,30.03,SE,137,6.0,9.0,42,0.00,,---,0.00,VWS V14.00,2013-06-19 18:48:00,
2013-06-19 14:49:00,73.3,50.1,30.03,SE,140,7.0,9.0,44,0.00,,---,0.00,VWS V14.00,2013-06-19 18:49:00,
2013-06-19 14:50:00,73.3,48.8,30.03,SE,133,0.0,9.0,42,0.00,,---,0.00,VWS V14.00,2013-06-19 18:50:00,
2013-06-19 14:51:00,73.5,49.0,30.03,SE,134,0.0,9.0,42,0.00,,---,0.00,VWS V14.00,2013-06-19 18:51:00,
2013-06-19 14:53:00,73.5,52.6,30.03,SSE,161,0.0,9.0,48,0.00,,---,0.00,VWS V14.00,2013-06-19 18:53:00,
2013-06-19 14:54:00,73.2,52.4,30.03,SSE,167,0.0,9.0,48,0.00,,---,0.00,VWS V14.00,2013-06-19 18:54:00,
2013-06-19 14:55:00,73.0,49.2,30.03,South,181,1.0,9.0,43,0.00,,---,0.00,VWS V14.00,2013-06-19 18:55:00,
2013-06-19 14:56:00,73.0,49.2,30.03,South,182,2.0,9.0,43,0.00,,---,0.00,VWS V14.00,2013-06-19 18:56:00,
2013-06-19 14:58:00,72.7,49.5,30.03,South,182,0.0,9.0,44,0.00,,---,0.00,VWS V14.00,2013-06-19 18:58:00,
2013-06-19 14:59:00,72.7,50.2,30.03,South,182,0.0,9.0,45,0.00,,---,0.00,VWS V14.00,2013-06-19 18:59:00,
2013-06-19 15:00:00,73.0,49.2,30.03,South,182,0.0,9.0,43,0.00,,---,0.00,VWS V14.00,2013-06-19 19:00:00,
2013-06-19 15:01:00,73.0,49.2,30.03,SSW,198,4.0,9.0,43,0.00,,---,0.00,VWS V14.00,2013-06-19 19:01:00,
2013-06-19 15:03:00,72.8,52.0,30.03,SE,131,1.0,9.0,48,0.00,,---,0.00,VWS V14.00,2013-06-19 19:03:00,
2013-06-19 15:04:00,73.0,53.8,30.03,SSW,198,6.0,9.0,51,0.00,,---,0.00,VWS V14.00,2013-06-19 19:04:00,
2013-06-19 15:05:00,73.0,52.7,30.03,SSE,162,0.0,9.0,49,0.00,,---,0.00,VWS V14.00,2013-06-19 19:05:00,
2013-06-19 15:06:00,73.2,50.6,30.03,SSE,148,0.0,9.0,45,0.00,,---,0.00,VWS V14.00,2013-06-19 19:06:00,
2013-06-19 15:07:00,73.2,50.6,30.03,South,179,0.0,9.0,45,0.00,,---,0.00,VWS V14.00,2013-06-19 19:07:00,
2013-06-19 15:08:00,73.2,49.4,30.03,SSE,150,0.0,9.0,43,0.00,,---,0.00,VWS V14.00,2013-06-19 19:08:00,
2013-06-19 15:09:00,73.5,52.1,30.03,SE,127,0.0,9.0,47,0.00,,---,0.00,VWS V14.00,2013-06-19 19:09:00,
2013-06-19 15:10:00,73.7,51.7,30.03,SE,127,0.0,9.0,46,0.00,,---,0.00,VWS V14.00,2013-06-19 19:10:00,
2013-06-19 15:11:00,73.7,51.7,30.03,SE,138,0.0,9.0,46,0.00,,---,0.00,VWS V14.00,2013-06-19 19:11:00,
2013-06-19 15:12:00,73.9,51.8,30.03,ESE,102,7.0,9.0,46,0.00,,---,0.00,VWS V14.00,2013-06-19 19:12:00,
2013-06-19 15:13:00,73.9,50.6,30.03,SSW,193,2.0,9.0,44,0.00,,---,0.00,VWS V14.00,2013-06-19 19:13:00,
2013-06-19 15:14:00,73.5,52.1,30.03,SSW,208,2.0,9.0,47,0.00,,---,0.00,VWS V14.00,2013-06-19 19:14:00,
2013-06-19 15:16:00,73.2,50.6,30.03,SSW,206,0.0,9.0,45,0.00,,---,0.00,VWS V14.00,2013-06-19 19:16:00,
2013-06-19 15:17:00,73.2,51.2,30.03,SSW,206,0.0,9.0,46,0.00,,---,0.00,VWS V14.00,2013-06-19 19:17:00,
2013-06-19 15:18:00,73.0,51.0,30.03,SSW,206,0.0,9.0,46,0.00,,---,0.00,VWS V14.00,2013-06-19 19:18:00,
2013-06-19 15:19:00,72.8,51.4,30.03,ESE,120,6.0,9.0,47,0.00,,---,0.00,VWS V14.00,2013-06-19 19:19:00,
2013-06-19 15:21:00,72.8,50.2,30.03,SE,127,0.0,9.0,45,0.00,,---,0.00,VWS V14.00,2013-06-19 19:21:00,
2013-06-19 15:22:00,72.5,48.1,30.03,SE,127,0.0,9.0,42,0.00,,---,0.00,VWS V14.00,2013-06-19 19:22:00,
2013-06-19 15:23:00,72.0,47.0,30.03,SE,130,0.0,9.0,41,0.00,,---,0.00,VWS V14.00,2013-06-19 19:23:00,
2013-06-19 15:25:00,71.8,51.1,30.03,SSE,157,0.0,9.0,48,0.00,,---,0.00,VWS V14.00,2013-06-19 19:25:00,
2013-06-19 15:26:00,71.8,50.5,30.03,SSE,157,0.0,9.0,47,0.00,,---,0.00,VWS V14.00,2013-06-19 19:26:00,
2013-06-19 15:27:00,72.0,51.3,30.03,SSE,157,0.0,9.0,48,0.00,,---,0.00,VWS V14.00,2013-06-19 19:27:00,
2013-06-19 15:28:00,72.5,51.2,30.03,SE,131,2.0,9.0,47,0.00,,---,0.00,VWS V14.00,2013-06-19 19:28:00,
2013-06-19 15:30:00,73.3,52.5,30.03,East,82,1.0,9.0,48,0.00,,---,0.00,VWS V14.00,2013-06-19 19:30:00,
2013-06-19 15:31:00,74.0,53.7,30.03,SE,141,4.0,9.0,49,0.00,,---,0.00,VWS V14.00,2013-06-19 19:31:00,
2013-06-19 15:32:00,74.0,48.8,30.03,ESE,116,1.0,9.0,41,0.00,,---,0.00,VWS V14.00,2013-06-19 19:32:00,
2013-06-19 15:33:00,74.2,49.0,30.03,ESE,107,0.0,9.0,41,0.00,,---,0.00,VWS V14.00,2013-06-19 19:33:00,
2013-06-19 15:35:00,73.5,52.6,30.03,South,175,2.0,9.0,48,0.00,,---,0.00,VWS V14.00,2013-06-19 19:35:00,
2013-06-19 15:36:00,73.2,52.4,30.03,South,175,0.0,9.0,48,0.00,,---,0.00,VWS V14.00,2013-06-19 19:36:00,
2013-06-19 15:37:00,72.8,50.8,30.03,South,175,0.0,9.0,46,0.00,,---,0.00,VWS V14.00,2013-06-19 19:37:00,
2013-06-19 15:39:00,73.3,50.7,30.03,SE,145,1.0,9.0,45,0.00,,---,0.00,VWS V14.00,2013-06-19 19:39:00,
2013-06-19 15:40:00,73.2,51.8,30.03,SSE,158,0.0,9.0,47,0.00,,---,0.00,VWS V14.00,2013-06-19 19:40:00,
2013-06-19 15:41:00,73.2,51.8,30.03,SSE,165,4.0,9.0,47,0.00,,---,0.00,VWS V14.00,2013-06-19 19:41:00,
2013-06-19 15:42:00,73.2,50.0,30.03,SE,124,0.0,9.0,44,0.00,,---,0.00,VWS V14.00,2013-06-19 19:42:00,
2013-06-19 15:44:00,73.2,53.5,30.03,SE,133,0.0,9.0,50,0.00,,---,0.00,VWS V14.00,2013-06-19 19:44:00,
2013-06-19 15:45:00,73.5,54.3,30.02,SE,140,4.0,9.0,51,0.00,,---,0.00,VWS V14.00,2013-06-19 19:45:00,
2013-06-19 15:46:00,73.5,54.3,30.02,SSE,154,0.0,9.0,51,0.00,,---,0.00,VWS V14.00,2013-06-19 19:46:00,
2013-06-19 15:47:00,73.3,50.7,30.02,SE,136,0.0,9.0,45,0.00,,---,0.00,VWS V14.00,2013-06-19 19:47:00,
2013-06-19 15:48:00,73.3,50.7,30.02,SE,127,2.0,9.0,45,0.00,,---,0.00,VWS V14.00,2013-06-19 19:48:00,
2013-06-19 15:49:00,73.7,53.9,30.02,ESE,116,0.0,9.0,50,0.00,,---,0.00,VWS V14.00,2013-06-19 19:49:00,
2013-06-19 15:50:00,73.5,49.7,30.02,SE,138,0.0,9.0,43,0.00,,---,0.00,VWS V14.00,2013-06-19 19:50:00,
2013-06-19 15:51:00,73.5,51.5,30.02,SE,126,0.0,9.0,46,0.00,,---,0.00,VWS V14.00,2013-06-19 19:51:00,
2013-06-19 15:52:00,73.5,49.7,30.02,SE,126,0.0,9.0,43,0.00,,---,0.00,VWS V14.00,2013-06-19 19:52:00,
2013-06-19 15:53:00,73.3,51.3,30.02,SE,126,0.0,9.0,46,0.00,,---,0.00,VWS V14.00,2013-06-19 19:53:00,
2013-06-19 15:54:00,73.5,51.5,30.02,NNE,13,0.0,9.0,46,0.00,,---,0.00,VWS V14.00,2013-06-19 19:54:00,
2013-06-19 15:56:00,73.5,49.0,30.02,ENE,72,0.0,9.0,42,0.00,,---,0.00,VWS V14.00,2013-06-19 19:56:00,
2013-06-19 15:57:00,73.9,50.6,30.02,East,82,2.0,9.0,44,0.00,,---,0.00,VWS V14.00,2013-06-19 19:57:00,
2013-06-19 15:58:00,74.0,50.7,30.02,ESE,102,0.0,9.0,44,0.00,,---,0.00,VWS V14.00,2013-06-19 19:58:00,
2013-06-19 16:00:00,74.2,50.9,30.02,East,82,0.0,9.0,44,0.00,,---,0.00,VWS V14.00,2013-06-19 20:00:00,
2013-06-19 16:01:00,74.4,51.1,30.02,East,82,0.0,9.0,44,0.00,,---,0.00,VWS V14.00,2013-06-19 20:01:00,
2013-06-19 16:02:00,74.6,53.6,30.02,East,82,0.0,0.0,48,0.00,,---,0.00,VWS V14.00,2013-06-19 20:02:00,
2013-06-19 16:03:00,74.9,56.1,30.02,East,82,0.0,0.0,52,0.00,,---,0.00,VWS V14.00,2013-06-19 20:03:00,
2013-06-19 16:05:00,74.6,51.9,30.02,East,82,0.0,0.0,45,0.00,,---,0.00,VWS V14.00,2013-06-19 20:05:00,
2013-06-19 16:06:00,74.2,52.7,30.02,East,82,0.0,0.0,47,0.00,,---,0.00,VWS V14.00,2013-06-19 20:06:00,
2013-06-19 16:07:00,74.4,52.9,30.02,East,85,0.0,0.0,47,0.00,,---,0.00,VWS V14.00,2013-06-19 20:07:00,
2013-06-19 16:08:00,74.4,54.0,30.02,SSE,154,0.0,0.0,49,0.00,,---,0.00,VWS V14.00,2013-06-19 20:08:00,
2013-06-19 16:10:00,74.4,48.5,30.02,SSE,161,0.0,1.0,40,0.00,,---,0.00,VWS V14.00,2013-06-19 20:10:00,
2013-06-19 16:11:00,73.9,48.1,30.02,South,179,0.0,2.0,40,0.00,,---,0.00,VWS V14.00,2013-06-19 20:11:00,
2013-06-19 16:12:00,73.9,48.1,30.02,South,179,0.0,2.0,40,0.00,,---,0.00,VWS V14.00,2013-06-19 20:12:00,
2013-06-19 16:13:00,73.5,48.4,30.02,WSW,250,1.0,2.0,41,0.00,,---,0.00,VWS V14.00,2013-06-19 20:13:00,
2013-06-19 16:15:00,73.7,48.6,30.02,WSW,246,0.0,6.0,41,0.00,,---,0.00,VWS V14.00,2013-06-19 20:15:00,
2013-06-19 16:16:00,73.3,48.2,30.02,South,175,4.0,6.0,41,0.00,,---,0.00,VWS V14.00,2013-06-19 20:16:00,
2013-06-19 16:17:00,73.5,50.9,30.02,South,176,0.0,6.0,45,0.00,,---,0.00,VWS V14.00,2013-06-19 20:17:00,
2013-06-19 16:18:00,73.3,50.7,30.02,West,281,0.0,6.0,45,0.00,,---,0.00,VWS V14.00,2013-06-19 20:18:00,
2013-06-19 16:20:00,74.0,48.8,30.02,WNW,288,0.0,6.0,41,0.00,,---,0.00,VWS V14.00,2013-06-19 20:20:00,
2013-06-19 16:21:00,74.4,50.5,30.02,SE,124,4.0,6.0,43,0.00,,---,0.00,VWS V14.00,2013-06-19 20:21:00,
2013-06-19 16:22:00,74.6,53.1,30.02,East,92,4.0,6.0,47,0.00,,---,0.00,VWS V14.00,2013-06-19 20:22:00,
2013-06-19 16:23:00,74.9,52.2,30.02,SSE,150,2.0,10.0,45,0.00,,---,0.00,VWS V14.00,2013-06-19 20:23:00,
2013-06-19 16:25:00,75.1,51.1,30.02,SE,141,0.0,10.0,43,0.00,,---,0.00,VWS V14.00,2013-06-19 20:25:00,
2013-06-19 16:27:00,75.3,51.9,30.02,SE,136,0.0,10.0,44,0.00,,---,0.00,VWS V14.00,2013-06-19 20:27:00,
2013-06-19 16:28:00,75.1,51.7,30.02,SE,136,0.0,10.0,44,0.00,,---,0.00,VWS V14.00,2013-06-19 20:28:00,
2013-06-19 16:30:00,74.7,53.7,30.02,WNW,282,6.0,10.0,48,0.00,,---,0.00,VWS V14.00,2013-06-19 20:30:00,
2013-06-19 16:32:00,74.7,52.0,30.02,West,280,0.0,10.0,45,0.00,,---,0.00,VWS V14.00,2013-06-19 20:32:00,
2013-06-19 16:33:00,74.7,50.1,30.02,East,100,4.0,10.0,42,0.00,,---,0.00,VWS V14.00,2013-06-19 20:33:00,
2013-06-19 16:35:00,75.4,52.6,30.02,ESE,119,0.0,10.0,45,0.00,,---,0.00,VWS V14.00,2013-06-19 20:35:00,
2013-06-19 16:37:00,74.9,51.5,30.02,ESE,123,4.0,10.0,44,0.00,,---,0.00,VWS V14.00,2013-06-19 20:37:00,
2013-06-19 16:38:00,74.9,53.9,30.02,East,95,9.0,10.0,48,0.00,,---,0.00,VWS V14.00,2013-06-19 20:38:00,
2013-06-19 16:40:00,74.6,52.5,30.02,South,189,0.0,10.0,46,0.00,,---,0.00,VWS V14.00,2013-06-19 20:40:00,
2013-06-19 16:42:00,73.9,51.8,30.02,ESE,120,0.0,10.0,46,0.00,,---,0.00,VWS V14.00,2013-06-19 20:42:00,
2013-06-19 16:43:00,73.7,51.1,30.02,East,95,0.0,10.0,45,0.00,,---,0.00,VWS V14.00,2013-06-19 20:43:00,
2013-06-19 16:44:00,73.7,52.8,30.02,East,96,0.0,10.0,48,0.00,,---,0.00,VWS V14.00,2013-06-19 20:44:00,
2013-06-19 16:45:00,73.3,51.3,30.02,ESE,112,0.0,10.0,46,0.00,,---,0.00,VWS V14.00,2013-06-19 20:45:00,
2013-06-19 16:47:00,72.8,51.4,30.02,SE,138,0.0,10.0,47,0.00,,---,0.00,VWS V14.00,2013-06-19 20:47:00,
2013-06-19 16:49:00,72.7,52.5,30.02,South,175,0.0,10.0,49,0.00,,---,0.00,VWS V14.00,2013-06-19 20:49:00,
2013-06-19 16:50:00,72.1,50.2,30.02,South,175,0.0,10.0,46,0.00,,---,0.00,VWS V14.00,2013-06-19 20:50:00,
2013-06-19 16:52:00,71.8,51.1,30.02,South,175,0.0,10.0,48,0.00,,---,0.00,VWS V14.00,2013-06-19 20:52:00,
2013-06-19 16:53:00,71.8,51.1,30.02,South,175,0.0,10.0,48,0.00,,---,0.00,VWS V14.00,2013-06-19 20:53:00,
2013-06-19 16:54:00,71.8,51.6,30.02,SE,141,1.0,10.0,49,0.00,,---,0.00,VWS V14.00,2013-06-19 20:54:00,
2013-06-19 16:55:00,71.8,49.3,30.02,SE,140,0.0,10.0,45,0.00,,---,0.00,VWS V14.00,2013-06-19 20:55:00,
2013-06-19 16:58:00,72.1,51.3,30.02,SE,145,0.0,10.0,48,0.00,,---,0.00,VWS V14.00,2013-06-19 20:58:00,
2013-06-19 16:59:00,72.1,50.8,30.02,SE,145,0.0,10.0,47,0.00,,---,0.00,VWS V14.00,2013-06-19 20:59:00,
2013-06-19 17:01:00,71.8,51.1,30.02,SE,145,0.0,10.0,48,0.00,,---,0.00,VWS V14.00,2013-06-19 21:01:00,
2013-06-19 17:03:00,71.8,52.2,30.02,East,96,0.0,6.0,50,0.00,,---,0.00,VWS V14.00,2013-06-19 21:03:00,
2013-06-19 17:04:00,72.1,53.0,30.02,SE,126,0.0,6.0,51,0.00,,---,0.00,VWS V14.00,2013-06-19 21:04:00,
2013-06-19 17:06:00,72.5,51.7,30.02,SSE,167,0.0,6.0,48,0.00,,---,0.00,VWS V14.00,2013-06-19 21:06:00,
2013-06-19 17:08:00,72.1,51.3,30.02,SSE,167,0.0,6.0,48,0.00,,---,0.00,VWS V14.00,2013-06-19 21:08:00,
2013-06-19 17:09:00,72.0,52.4,30.02,SSE,167,0.0,6.0,50,0.00,,---,0.00,VWS V14.00,2013-06-19 21:09:00,
2013-06-19 17:10:00,71.8,51.1,30.02,SSE,167,0.0,6.0,48,0.00,,---,0.00,VWS V14.00,2013-06-19 21:10:00,
2013-06-19 17:11:00,71.6,51.5,30.02,SSE,167,0.0,6.0,49,0.00,,---,0.00,VWS V14.00,2013-06-19 21:11:00,
2013-06-19 17:13:00,71.5,51.4,30.02,South,186,0.0,6.0,49,0.00,,---,0.00,VWS V14.00,2013-06-19 21:13:00,
2013-06-19 17:14:00,71.8,53.2,30.02,SSE,168,0.0,6.0,52,0.00,,---,0.00,VWS V14.00,2013-06-19 21:14:00,
2013-06-19 17:15:00,72.0,53.4,30.02,SSE,168,0.0,6.0,52,0.00,,---,0.00,VWS V14.00,2013-06-19 21:15:00,
2013-06-19 17:16:00,72.1,51.3,30.02,SE,140,0.0,6.0,48,0.00,,---,0.00,VWS V14.00,2013-06-19 21:16:00,
2013-06-19 17:18:00,72.5,52.8,30.02,SE,140,0.0,6.0,50,0.00,,---,0.00,VWS V14.00,2013-06-19 21:18:00,
2013-06-19 17:19:00,72.5,51.2,30.02,South,179,0.0,6.0,47,0.00,,---,0.00,VWS V14.00,2013-06-19 21:19:00,
2013-06-19 17:20:00,72.5,51.2,30.02,South,179,0.0,6.0,47,0.00,,---,0.00,VWS V14.00,2013-06-19 21:20:00,
2013-06-19 17:21:00,73.0,52.2,30.02,South,189,2.0,6.0,48,0.00,,---,0.00,VWS V14.00,2013-06-19 21:21:00,
2013-06-19 17:23:00,72.7,50.2,30.02,South,189,0.0,6.0,45,0.00,,---,0.00,VWS V14.00,2013-06-19 21:23:00,
2013-06-19 17:25:00,72.1,51.3,30.02,South,189,0.0,6.0,48,0.00,,---,0.00,VWS V14.00,2013-06-19 21:25:00,
2013-06-19 17:26:00,71.8,51.6,30.02,South,189,0.0,6.0,49,0.00,,---,0.00,VWS V14.00,2013-06-19 21:26:00,
2013-06-19 17:28:00,71.8,50.5,30.02,South,189,0.0,6.0,47,0.00,,---,0.00,VWS V14.00,2013-06-19 21:28:00,
2013-06-19 17:30:00,72.3,52.6,30.02,SE,145,0.0,6.0,50,0.00,,---,0.00,VWS V14.00,2013-06-19 21:30:00,
2013-06-19 17:31:00,72.5,52.3,30.01,SE,145,0.0,6.0,49,0.00,,---,0.00,VWS V14.00,2013-06-19 21:31:00,
2013-06-19 17:33:00,72.8,53.1,30.01,SE,138,0.0,6.0,50,0.00,,---,0.00,VWS V14.00,2013-06-19 21:33:00,
2013-06-19 17:34:00,72.8,53.1,30.01,SE,138,0.0,6.0,50,0.00,,---,0.00,VWS V14.00,2013-06-19 21:34:00,
2013-06-19 17:35:00,73.0,53.3,30.01,SSE,151,0.0,6.0,50,0.00,,---,0.00,VWS V14.00,2013-06-19 21:35:00,
2013-06-19 17:36:00,73.0,53.3,30.01,SSE,151,0.0,6.0,50,0.00,,---,0.00,VWS V14.00,2013-06-19 21:36:00,
2013-06-19 17:38:00,73.9,54.7,30.01,South,181,1.0,8.0,51,0.00,,---,0.00,VWS V14.00,2013-06-19 21:38:00,
2013-06-19 17:39:00,73.7,52.2,30.01,South,191,4.0,8.0,47,0.00,,---,0.00,VWS V14.00,2013-06-19 21:39:00,
2013-06-19 17:40:00,73.5,52.6,30.01,SSW,206,0.0,9.0,48,0.00,,---,0.00,VWS V14.00,2013-06-19 21:40:00,
2013-06-19 17:41:00,73.5,52.6,30.01,SSW,206,0.0,9.0,48,0.00,,---,0.00,VWS V14.00,2013-06-19 21:41:00,
2013-06-19 17:42:00,73.3,53.6,30.01,SSW,202,4.0,9.0,50,0.00,,---,0.00,VWS V14.00,2013-06-19 21:42:00,
2013-06-19 17:43:00,73.0,52.2,30.01,SSE,158,1.0,9.0,48,0.00,,---,0.00,VWS V14.00,2013-06-19 21:43:00,
2013-06-19 17:44:00,73.2,53.5,30.01,SSE,158,0.0,9.0,50,0.00,,---,0.00,VWS V14.00,2013-06-19 21:44:00,
2013-06-19 17:46:00,73.2,52.9,30.01,SSE,147,0.0,9.0,49,0.00,,---,0.00,VWS V14.00,2013-06-19 21:46:00,
2013-06-19 17:47:00,73.2,51.8,30.01,SSE,148,0.0,9.0,47,0.00,,---,0.00,VWS V14.00,2013-06-19 21:47:00,
2013-06-19 17:49:00,73.2,54.0,30.01,SE,140,2.0,9.0,51,0.00,,---,0.00,VWS V14.00,2013-06-19 21:49:00,
2013-06-19 17:51:00,73.0,51.6,30.01,SE,140,0.0,9.0,47,0.00,,---,0.00,VWS V14.00,2013-06-19 21:51:00,
2013-06-19 17:52:00,72.8,52.5,30.01,SE,141,0.0,9.0,49,0.00,,---,0.00,VWS V14.00,2013-06-19 21:52:00,
2013-06-19 17:54:00,72.0,51.8,30.01,SSE,162,0.0,9.0,49,0.00,,---,0.00,VWS V14.00,2013-06-19 21:54:00,
2013-06-19 17:55:00,71.8,51.6,30.01,SSE,162,0.0,9.0,49,0.00,,---,0.00,VWS V14.00,2013-06-19 21:55:00,
2013-06-19 17:56:00,71.6,51.5,30.01,SSE,162,0.0,9.0,49,0.00,,---,0.00,VWS V14.00,2013-06-19 21:56:00,
2013-06-19 17:57:00,71.3,51.2,30.01,SSE,162,0.0,9.0,49,0.00,,---,0.00,VWS V14.00,2013-06-19 21:57:00,
2013-06-19 17:59:00,70.8,51.8,30.01,SSE,162,0.0,9.0,51,0.00,,---,0.00,VWS V14.00,2013-06-19 21:59:00,
2013-06-19 18:00:00,70.9,53.4,30.01,SSE,165,4.0,9.0,54,0.00,,---,0.00,VWS V14.00,2013-06-19 22:00:00,
2013-06-19 18:01:00,70.9,51.9,30.01,SSE,165,0.0,9.0,51,0.00,,---,0.00,VWS V14.00,2013-06-19 22:01:00,
2013-06-19 18:02:00,71.1,52.1,30.01,SSE,165,0.0,0.0,51,0.00,,---,0.00,VWS V14.00,2013-06-19 22:02:00,
2013-06-19 18:04:00,71.3,52.3,30.01,SSE,165,0.0,0.0,51,0.00,,---,0.00,VWS V14.00,2013-06-19 22:04:00,
2013-06-19 18:05:00,71.3,52.3,30.01,SSE,165,0.0,0.0,51,0.00,,---,0.00,VWS V14.00,2013-06-19 22:05:00,
2013-06-19 18:06:00,71.3,52.3,30.01,SSE,165,0.0,0.0,51,0.00,,---,0.00,VWS V14.00,2013-06-19 22:06:00,
2013-06-19 18:07:00,71.1,52.1,30.01,SE,137,0.0,7.0,51,0.00,,---,0.00,VWS V14.00,2013-06-19 22:07:00,
2013-06-19 18:09:00,70.9,52.9,30.01,SE,134,0.0,7.0,53,0.00,,---,0.00,VWS V14.00,2013-06-19 22:09:00,
2013-06-19 18:10:00,70.9,52.9,30.01,SE,134,0.0,7.0,53,0.00,,---,0.00,VWS V14.00,2013-06-19 22:10:00,
2013-06-19 18:11:00,70.8,52.8,30.01,SE,134,0.0,7.0,53,0.00,,---,0.00,VWS V14.00,2013-06-19 22:11:00,
2013-06-19 18:12:00,70.8,52.8,30.01,SE,134,0.0,7.0,53,0.00,,---,0.00,VWS V14.00,2013-06-19 22:12:00,
2013-06-19 18:13:00,70.8,52.8,30.01,SE,134,0.0,7.0,53,0.00,,---,0.00,VWS V14.00,2013-06-19 22:13:00,
2013-06-19 18:14:00,71.1,54.6,30.01,SE,144,9.0,10.0,56,0.00,,---,0.00,VWS V14.00,2013-06-19 22:14:00,
2013-06-19 18:15:00,71.3,54.8,30.01,SE,127,8.0,10.0,56,0.00,,---,0.00,VWS V14.00,2013-06-19 22:15:00,
2013-06-19 18:16:00,71.6,53.1,30.01,SE,137,8.0,11.0,52,0.00,,---,0.00,VWS V14.00,2013-06-19 22:16:00,
2013-06-19 18:17:00,72.1,53.0,30.01,ESE,113,0.0,11.0,51,0.00,,---,0.00,VWS V14.00,2013-06-19 22:17:00,
2013-06-19 18:18:00,72.3,53.2,30.01,SE,127,0.0,11.0,51,0.00,,---,0.00,VWS V14.00,2013-06-19 22:18:00,
2013-06-19 18:20:00,72.7,53.5,30.01,SE,134,4.0,11.0,51,0.00,,---,0.00,VWS V14.00,2013-06-19 22:20:00,
2013-06-19 18:21:00,72.8,53.6,30.01,South,179,0.0,11.0,51,0.00,,---,0.00,VWS V14.00,2013-06-19 22:21:00,
2013-06-19 18:22:00,73.0,52.7,30.01,South,175,1.0,11.0,49,0.00,,---,0.00,VWS V14.00,2013-06-19 22:22:00,
2013-06-19 18:23:00,72.8,52.5,30.01,South,184,0.0,11.0,49,0.00,,---,0.00,VWS V14.00,2013-06-19 22:23:00,
2013-06-19 18:25:00,73.0,54.9,30.01,SE,127,0.0,11.0,53,0.00,,---,0.00,VWS V14.00,2013-06-19 22:25:00,
2013-06-19 18:26:00,73.2,54.0,30.01,SE,145,1.0,11.0,51,0.00,,---,0.00,VWS V14.00,2013-06-19 22:26:00,
2013-06-19 18:27:00,73.2,52.4,30.01,SE,141,0.0,11.0,48,0.00,,---,0.00,VWS V14.00,2013-06-19 22:27:00,
2013-06-19 18:28:00,73.2,54.0,30.01,SE,143,0.0,11.0,51,0.00,,---,0.00,VWS V14.00,2013-06-19 22:28:00,
2013-06-19 18:30:00,73.2,53.5,30.01,South,175,2.0,11.0,50,0.00,,---,0.00,VWS V14.00,2013-06-19 22:30:00,
2013-06-19 18:31:00,73.0,53.3,30.00,South,178,1.0,11.0,50,0.00,,---,0.00,VWS V14.00,2013-06-19 22:31:00,
2013-06-19 18:32:00,73.0,53.8,30.00,South,179,1.0,11.0,51,0.00,,---,0.00,VWS V14.00,2013-06-19 22:32:00,
2013-06-19 18:33:00,72.8,52.5,30.00,SSW,195,2.0,11.0,49,0.00,,---,0.00,VWS V14.00,2013-06-19 22:33:00,
2013-06-19 18:35:00,72.8,54.2,30.00,SE,143,0.0,11.0,52,0.00,,---,0.00,VWS V14.00,2013-06-19 22:35:00,
2013-06-19 18:36:00,73.0,53.8,30.00,SSW,199,2.0,11.0,51,0.00,,---,0.00,VWS V14.00,2013-06-19 22:36:00,
2013-06-19 18:37:00,72.8,52.5,30.00,SSE,161,1.0,11.0,49,0.00,,---,0.00,VWS V14.00,2013-06-19 22:37:00,
2013-06-19 18:38:00,72.8,52.5,30.00,SSE,161,0.0,11.0,49,0.00,,---,0.00,VWS V14.00,2013-06-19 22:38:00,
2013-06-19 18:40:00,72.5,53.4,30.00,SSE,148,0.0,11.0,51,0.00,,---,0.00,VWS V14.00,2013-06-19 22:40:00,
2013-06-19 18:41:00,72.5,53.4,30.00,South,171,2.0,11.0,51,0.00,,---,0.00,VWS V14.00,2013-06-19 22:41:00,
2013-06-19 18:43:00,72.7,53.5,30.00,SE,144,0.0,11.0,51,0.00,,---,0.00,VWS V14.00,2013-06-19 22:43:00,
2013-06-19 18:45:00,72.8,53.1,30.01,SE,134,2.0,11.0,50,0.00,,---,0.00,VWS V14.00,2013-06-19 22:45:00,
2013-06-19 18:46:00,72.8,53.1,30.01,SE,134,0.0,11.0,50,0.00,,---,0.00,VWS V14.00,2013-06-19 22:46:00,
2013-06-19 18:47:00,72.8,53.1,30.01,South,174,0.0,11.0,50,0.00,,---,0.00,VWS V14.00,2013-06-19 22:47:00,
2013-06-19 18:48:00,72.7,52.5,30.01,SSE,167,1.0,11.0,49,0.00,,---,0.00,VWS V14.00,2013-06-19 22:48:00,
2013-06-19 18:51:00,72.7,54.1,30.01,SE,130,0.0,11.0,52,0.00,,---,0.00,VWS V14.00,2013-06-19 22:51:00,
2013-06-19 18:52:00,72.8,53.1,30.01,SE,127,2.0,11.0,50,0.00,,---,0.00,VWS V14.00,2013-06-19 22:52:00,
2013-06-19 18:53:00,72.7,53.5,30.01,SE,127,0.0,11.0,51,0.00,,---,0.00,VWS V14.00,2013-06-19 22:53:00,
2013-06-19 18:56:00,72.3,52.1,30.01,South,174,1.0,11.0,49,0.00,,---,0.00,VWS V14.00,2013-06-19 22:56:00,
2013-06-19 18:57:00,72.5,52.3,30.01,SSE,155,0.0,11.0,49,0.00,,---,0.00,VWS V14.00,2013-06-19 22:57:00,
2013-06-19 18:58:00,72.5,52.8,30.01,SSE,155,0.0,11.0,50,0.00,,---,0.00,VWS V14.00,2013-06-19 22:58:00,
2013-06-19 19:01:00,72.5,53.9,30.00,SE,144,0.0,11.0,52,0.00,,---,0.00,VWS V14.00,2013-06-19 23:01:00,
2013-06-19 19:02:00,72.7,54.6,30.00,SSE,150,0.0,2.0,53,0.00,,---,0.00,VWS V14.00,2013-06-19 23:02:00,
2013-06-19 19:03:00,72.5,52.8,30.00,South,178,0.0,6.0,50,0.00,,---,0.00,VWS V14.00,2013-06-19 23:03:00,
2013-06-19 19:06:00,72.3,53.7,30.00,South,188,1.0,6.0,52,0.00,,---,0.00,VWS V14.00,2013-06-19 23:06:00,
2013-06-19 19:07:00,72.3,53.2,30.00,SSE,151,0.0,6.0,51,0.00,,---,0.00,VWS V14.00,2013-06-19 23:07:00,
2013-06-19 19:08:00,72.3,52.6,30.00,SSE,151,0.0,6.0,50,0.00,,---,0.00,VWS V14.00,2013-06-19 23:08:00,
2013-06-19 19:11:00,72.1,53.5,30.00,SE,134,0.0,6.0,52,0.00,,---,0.00,VWS V14.00,2013-06-19 23:11:00,
2013-06-19 19:12:00,72.0,55.0,30.00,SE,134,0.0,6.0,55,0.00,,---,0.00,VWS V14.00,2013-06-19 23:12:00,
2013-06-19 19:14:00,72.1,53.0,30.00,SE,127,1.0,6.0,51,0.00,,---,0.00,VWS V14.00,2013-06-19 23:14:00,
2013-06-19 19:16:00,72.1,53.0,30.00,SSE,162,0.0,6.0,51,0.00,,---,0.00,VWS V14.00,2013-06-19 23:16:00,
2013-06-19 19:17:00,72.1,53.5,30.00,ESE,119,2.0,8.0,52,0.00,,---,0.00,VWS V14.00,2013-06-19 23:17:00,
2013-06-19 19:18:00,72.1,53.5,30.00,ESE,117,6.0,8.0,52,0.00,,---,0.00,VWS V14.00,2013-06-19 23:18:00,
2013-06-19 19:19:00,72.1,53.5,30.00,ESE,123,0.0,8.0,52,0.00,,---,0.00,VWS V14.00,2013-06-19 23:19:00,
2013-06-19 19:21:00,72.3,52.6,30.00,ESE,112,4.0,8.0,50,0.00,,---,0.00,VWS V14.00,2013-06-19 23:21:00,
2013-06-19 19:22:00,72.3,53.7,30.00,ESE,116,1.0,8.0,52,0.00,,---,0.00,VWS V14.00,2013-06-19 23:22:00,
2013-06-19 19:23:00,72.3,53.7,30.00,SE,138,2.0,8.0,52,0.00,,---,0.00,VWS V14.00,2013-06-19 23:23:00,
2013-06-19 19:24:00,72.1,53.0,30.00,SE,124,0.0,8.0,51,0.00,,---,0.00,VWS V14.00,2013-06-19 23:24:00,
2013-06-19 19:26:00,71.8,53.8,30.00,SE,133,7.0,9.0,53,0.00,,---,0.00,VWS V14.00,2013-06-19 23:26:00,
2013-06-19 19:27:00,72.0,54.0,30.00,SSE,147,4.0,9.0,53,0.00,,---,0.00,VWS V14.00,2013-06-19 23:27:00,
2013-06-19 19:28:00,72.0,53.4,30.00,SSE,147,8.0,9.0,52,0.00,,---,0.00,VWS V14.00,2013-06-19 23:28:00,
2013-06-19 19:29:00,71.8,53.2,30.00,SE,133,2.0,9.0,52,0.00,,---,0.00,VWS V14.00,2013-06-19 23:29:00,
2013-06-19 19:31:00,71.6,53.1,30.01,ESE,109,4.0,9.0,52,0.00,,---,0.00,VWS V14.00,2013-06-19 23:31:00,
2013-06-19 19:33:00,71.5,54.0,30.01,ESE,109,0.0,9.0,54,0.00,,---,0.00,VWS V14.00,2013-06-19 23:33:00,
2013-06-19 19:34:00,71.5,53.5,30.01,SE,126,2.0,9.0,53,0.00,,---,0.00,VWS V14.00,2013-06-19 23:34:00,
2013-06-19 19:36:00,71.3,52.8,30.01,SE,130,2.0,9.0,52,0.00,,---,0.00,VWS V14.00,2013-06-19 23:36:00,
2013-06-19 19:38:00,71.3,53.3,30.01,SE,127,0.0,9.0,53,0.00,,---,0.00,VWS V14.00,2013-06-19 23:38:00,
2013-06-19 19:39:00,71.1,53.1,30.01,SE,143,6.0,9.0,53,0.00,,---,0.00,VWS V14.00,2013-06-19 23:39:00,
2013-06-19 19:41:00,70.9,52.9,30.01,SE,136,0.0,9.0,53,0.00,,---,0.00,VWS V14.00,2013-06-19 23:41:00,
2013-06-19 19:43:00,70.9,53.4,30.01,SE,138,0.0,9.0,54,0.00,,---,0.00,VWS V14.00,2013-06-19 23:43:00,
2013-06-19 19:44:00,70.8,52.8,30.01,ESE,119,6.0,9.0,53,0.00,,---,0.00,VWS V14.00,2013-06-19 23:44:00,
2013-06-19 19:45:00,70.8,53.8,30.01,SE,134,0.0,9.0,55,0.00,,---,0.00,VWS V14.00,2013-06-19 23:45:00,
2013-06-19 19:47:00,70.8,53.3,30.01,SE,136,0.0,9.0,54,0.00,,---,0.00,VWS V14.00,2013-06-19 23:47:00,
2013-06-19 19:48:00,70.8,53.3,30.01,ESE,117,0.0,9.0,54,0.00,,---,0.00,VWS V14.00,2013-06-19 23:48:00,
2013-06-19 19:49:00,70.8,53.8,30.01,ESE,117,0.0,9.0,55,0.00,,---,0.00,VWS V14.00,2013-06-19 23:49:00,
2013-06-19 19:50:00,70.6,53.7,30.01,SE,141,2.0,9.0,55,0.00,,---,0.00,VWS V14.00,2013-06-19 23:50:00,
2013-06-19 19:52:00,70.4,53.0,30.01,SE,144,1.0,9.0,54,0.00,,---,0.00,VWS V14.00,2013-06-19 23:52:00,
2013-06-19 19:53:00,70.4,53.5,30.01,SE,144,0.0,9.0,55,0.00,,---,0.00,VWS V14.00,2013-06-19 23:53:00,
2013-06-19 19:54:00,70.3,53.4,30.01,SE,144,0.0,9.0,55,0.00,,---,0.00,VWS V14.00,2013-06-19 23:54:00,
2013-06-19 19:55:00,70.3,53.4,30.01,SE,127,0.0,9.0,55,0.00,,---,0.00,VWS V14.00,2013-06-19 23:55:00,
2013-06-19 19:57:00,70.1,53.2,30.01,ESE,123,4.0,9.0,55,0.00,,---,0.00,VWS V14.00,2013-06-19 23:57:00,
2013-06-19 19:58:00,69.9,53.0,30.01,ESE,103,2.0,9.0,55,0.00,,---,0.00,VWS V14.00,2013-06-19 23:58:00,
2013-06-19 19:59:00,69.9,53.0,30.01,SE,130,0.0,9.0,55,0.00,,---,0.00,VWS V14.00,2013-06-19 23:59:00,
2013-06-19 20:00:00,69.9,53.5,30.01,SE,131,0.0,9.0,56,0.00,,---,0.00,VWS V14.00,2013-06-20 00:00:00,
2013-06-19 20:02:00,69.8,53.4,30.01,SE,144,7.0,8.0,56,0.00,,---,0.00,VWS V14.00,2013-06-20 00:02:00,
2013-06-19 20:03:00,69.8,53.4,30.01,SE,133,2.0,9.0,56,0.00,,---,0.00,VWS V14.00,2013-06-20 00:03:00,
2013-06-19 20:04:00,69.6,53.2,30.01,SE,133,6.0,9.0,56,0.00,,---,0.00,VWS V14.00,2013-06-20 00:04:00,
2013-06-19 20:05:00,69.6,52.7,30.01,SSE,147,2.0,9.0,55,0.00,,---,0.00,VWS V14.00,2013-06-20 00:05:00,
2013-06-19 20:08:00,69.6,53.2,30.01,ESE,113,0.0,9.0,56,0.00,,---,0.00,VWS V14.00,2013-06-20 00:08:00,
2013-06-19 20:09:00,69.6,53.2,30.01,SE,124,1.0,9.0,56,0.00,,---,0.00,VWS V14.00,2013-06-20 00:09:00,
2013-06-19 20:10:00,69.4,53.0,30.01,SE,138,8.0,10.0,56,0.00,,---,0.00,VWS V14.00,2013-06-20 00:10:00,
2013-06-19 20:13:00,69.1,53.2,30.01,SSE,147,6.0,10.0,57,0.00,,---,0.00,VWS V14.00,2013-06-20 00:13:00,
2013-06-19 20:14:00,68.9,53.1,30.01,East,82,0.0,10.0,57,0.00,,---,0.00,VWS V14.00,2013-06-20 00:14:00,
2013-06-19 20:15:00,68.9,53.1,30.01,SE,138,0.0,10.0,57,0.00,,---,0.00,VWS V14.00,2013-06-20 00:15:00,
2013-06-19 20:18:00,68.6,53.2,30.01,SE,124,1.0,10.0,58,0.00,,---,0.00,VWS V14.00,2013-06-20 00:18:00,
2013-06-19 20:20:00,68.4,53.1,30.01,ESE,120,2.0,10.0,58,0.00,,---,0.00,VWS V14.00,2013-06-20 00:20:00,
2013-06-19 20:21:00,68.4,53.1,30.01,SE,144,0.0,10.0,58,0.00,,---,0.00,VWS V14.00,2013-06-20 00:21:00,
2013-06-19 20:23:00,68.4,53.1,30.01,ESE,116,0.0,10.0,58,0.00,,---,0.00,VWS V14.00,2013-06-20 00:23:00,
2013-06-19 20:25:00,68.4,53.1,30.01,ESE,119,1.0,10.0,58,0.00,,---,0.00,VWS V14.00,2013-06-20 00:25:00,
2013-06-19 20:26:00,68.3,53.0,30.01,ESE,117,0.0,10.0,58,0.00,,---,0.00,VWS V14.00,2013-06-20 00:26:00,
2013-06-19 20:29:00,68.1,53.2,30.01,East,100,0.0,10.0,59,0.00,,---,0.00,VWS V14.00,2013-06-20 00:29:00,
2013-06-19 20:30:00,68.1,53.2,30.02,SE,137,0.0,10.0,59,0.00,,---,0.00,VWS V14.00,2013-06-20 00:30:00,
2013-06-19 20:31:00,68.1,53.2,30.02,SSE,147,1.0,10.0,59,0.00,,---,0.00,VWS V14.00,2013-06-20 00:31:00,
2013-06-19 20:34:00,67.9,53.1,30.02,SE,130,1.0,10.0,59,0.00,,---,0.00,VWS V14.00,2013-06-20 00:34:00,
2013-06-19 20:36:00,67.8,53.0,30.02,SE,127,4.0,10.0,59,0.00,,---,0.00,VWS V14.00,2013-06-20 00:36:00,
2013-06-19 20:37:00,67.6,52.8,30.02,SE,143,0.0,10.0,59,0.00,,---,0.00,VWS V14.00,2013-06-20 00:37:00,
2013-06-19 20:39:00,67.6,53.2,30.02,SE,140,0.0,10.0,60,0.00,,---,0.00,VWS V14.00,2013-06-20 00:39:00,
2013-06-19 20:41:00,67.4,53.0,30.02,SE,140,0.0,10.0,60,0.00,,---,0.00,VWS V14.00,2013-06-20 00:41:00,
2013-06-19 20:42:00,67.3,53.4,30.02,SSE,148,4.0,10.0,61,0.00,,---,0.00,VWS V14.00,2013-06-20 00:42:00,
2013-06-19 20:44:00,67.3,53.4,30.02,SSE,148,0.0,10.0,61,0.00,,---,0.00,VWS V14.00,2013-06-20 00:44:00,
2013-06-19 20:46:00,67.1,53.2,30.02,SSE,148,0.0,10.0,61,0.00,,---,0.00,VWS V14.00,2013-06-20 00:46:00,
2013-06-19 20:47:00,67.1,53.7,30.02,ESE,117,0.0,10.0,62,0.00,,---,0.00,VWS V14.00,2013-06-20 00:47:00,
2013-06-19 20:49:00,66.9,53.5,30.02,SE,134,0.0,10.0,62,0.00,,---,0.00,VWS V14.00,2013-06-20 00:49:00,
2013-06-19 20:51:00,66.8,53.4,30.02,SE,134,0.0,10.0,62,0.00,,---,0.00,VWS V14.00,2013-06-20 00:51:00,
2013-06-19 20:52:00,66.6,53.6,30.02,SE,134,0.0,10.0,63,0.00,,---,0.00,VWS V14.00,2013-06-20 00:52:00,
2013-06-19 20:54:00,66.3,53.8,30.02,SE,134,0.0,10.0,64,0.00,,---,0.00,VWS V14.00,2013-06-20 00:54:00,
2013-06-19 20:56:00,66.1,53.6,30.02,SE,140,0.0,10.0,64,0.00,,---,0.00,VWS V14.00,2013-06-20 00:56:00,
2013-06-19 20:57:00,66.1,53.6,30.02,SE,140,0.0,10.0,64,0.00,,---,0.00,VWS V14.00,2013-06-20 00:57:00,
2013-06-19 20:59:00,66.0,53.5,30.02,SE,140,0.0,10.0,64,0.00,,---,0.00,VWS V14.00,2013-06-20 00:59:00,
2013-06-19 21:01:00,66.0,53.5,30.03,SE,140,0.0,10.0,64,0.00,,---,0.00,VWS V14.00,2013-06-20 01:01:00,
2013-06-19 21:02:00,65.8,53.3,30.03,SE,140,0.0,0.0,64,0.00,,---,0.00,VWS V14.00,2013-06-20 01:02:00,
2013-06-19 21:04:00,65.6,53.5,30.03,SE,124,0.0,0.0,65,0.00,,---,0.00,VWS V14.00,2013-06-20 01:04:00,
2013-06-19 21:06:00,65.5,53.4,30.03,SE,124,0.0,0.0,65,0.00,,---,0.00,VWS V14.00,2013-06-20 01:06:00,
2013-06-19 21:07:00,65.3,53.2,30.03,SE,124,0.0,0.0,65,0.00,,---,0.00,VWS V14.00,2013-06-20 01:07:00,
2013-06-19 21:08:00,65.3,53.2,30.03,SE,124,0.0,0.0,65,0.00,,---,0.00,VWS V14.00,2013-06-20 01:08:00,
2013-06-19 21:10:00,65.0,53.4,30.03,SE,124,0.0,0.0,66,0.00,,---,0.00,VWS V14.00,2013-06-20 01:10:00,
2013-06-19 21:11:00,65.0,53.4,30.03,SE,124,0.0,0.0,66,0.00,,---,0.00,VWS V14.00,2013-06-20 01:11:00,
2013-06-19 21:13:00,64.8,53.6,30.03,SE,124,0.0,0.0,67,0.00,,---,0.00,VWS V14.00,2013-06-20 01:13:00,
2013-06-19 21:15:00,64.7,53.5,30.03,SE,126,0.0,0.0,67,0.00,,---,0.00,VWS V14.00,2013-06-20 01:15:00,
2013-06-19 21:16:00,64.7,53.5,30.03,SE,126,0.0,0.0,67,0.00,,---,0.00,VWS V14.00,2013-06-20 01:16:00,
2013-06-19 21:18:00,64.5,53.7,30.03,SE,126,0.0,0.0,68,0.00,,---,0.00,VWS V14.00,2013-06-20 01:18:00,
2013-06-19 21:20:00,64.5,53.7,30.03,SE,126,0.0,0.0,68,0.00,,---,0.00,VWS V14.00,2013-06-20 01:20:00,
2013-06-19 21:21:00,64.3,53.5,30.03,SE,126,0.0,0.0,68,0.00,,---,0.00,VWS V14.00,2013-06-20 01:21:00,
2013-06-19 21:23:00,64.2,53.8,30.03,SE,126,0.0,0.0,69,0.00,,---,0.00,VWS V14.00,2013-06-20 01:23:00,
2013-06-19 21:25:00,64.0,53.6,30.03,SE,126,0.0,0.0,69,0.00,,---,0.00,VWS V14.00,2013-06-20 01:25:00,
2013-06-19 21:26:00,63.9,53.5,30.03,SE,126,0.0,0.0,69,0.00,,---,0.00,VWS V14.00,2013-06-20 01:26:00,
2013-06-19 21:28:00,63.7,53.3,30.03,SE,141,0.0,0.0,69,0.00,,---,0.00,VWS V14.00,2013-06-20 01:28:00,
2013-06-19 21:29:00,63.7,53.3,30.03,SE,141,0.0,0.0,69,0.00,,---,0.00,VWS V14.00,2013-06-20 01:29:00,
2013-06-19 21:30:00,63.7,53.3,30.03,SE,141,0.0,0.0,69,0.00,,---,0.00,VWS V14.00,2013-06-20 01:30:00,
2013-06-19 21:31:00,63.7,53.3,30.04,SE,141,0.0,0.0,69,0.00,,---,0.00,VWS V14.00,2013-06-20 01:31:00,
2013-06-19 21:32:00,63.7,53.3,30.04,SE,141,0.0,0.0,69,0.00,,---,0.00,VWS V14.00,2013-06-20 01:32:00,
2013-06-19 21:33:00,63.5,53.2,30.04,SE,141,0.0,0.0,69,0.00,,---,0.00,VWS V14.00,2013-06-20 01:33:00,
2013-06-19 21:34:00,63.5,53.2,30.04,SE,141,0.0,0.0,69,0.00,,---,0.00,VWS V14.00,2013-06-20 01:34:00,
2013-06-19 21:35:00,63.5,53.2,30.04,SE,141,0.0,0.0,69,0.00,,---,0.00,VWS V14.00,2013-06-20 01:35:00,
2013-06-19 21:37:00,63.4,53.1,30.04,SE,141,0.0,0.0,69,0.00,,---,0.00,VWS V14.00,2013-06-20 01:37:00,
2013-06-19 21:38:00,63.4,53.1,30.04,SE,141,0.0,0.0,69,0.00,,---,0.00,VWS V14.00,2013-06-20 01:38:00,
2013-06-19 21:39:00,63.4,53.1,30.04,SE,141,0.0,0.0,69,0.00,,---,0.00,VWS V14.00,2013-06-20 01:39:00,
2013-06-19 21:40:00,63.2,52.9,30.04,SE,141,0.0,0.0,69,0.00,,---,0.00,VWS V14.00,2013-06-20 01:40:00,
2013-06-19 21:42:00,63.1,53.2,30.04,SE,136,0.0,0.0,70,0.00,,---,0.00,VWS V14.00,2013-06-20 01:42:00,
2013-06-19 21:43:00,62.9,53.0,30.04,SE,141,0.0,0.0,70,0.00,,---,0.00,VWS V14.00,2013-06-20 01:43:00,
2013-06-19 21:44:00,62.7,52.8,30.04,SE,141,0.0,0.0,70,0.00,,---,0.00,VWS V14.00,2013-06-20 01:44:00,
2013-06-19 21:46:00,62.4,52.9,30.04,SE,141,0.0,0.0,71,0.00,,---,0.00,VWS V14.00,2013-06-20 01:46:00,
2013-06-19 21:47:00,62.1,53.0,30.04,SE,141,0.0,0.0,72,0.00,,---,0.00,VWS V14.00,2013-06-20 01:47:00,
2013-06-19 21:48:00,62.0,52.9,30.04,SE,141,0.0,0.0,72,0.00,,---,0.00,VWS V14.00,2013-06-20 01:48:00,
2013-06-19 21:49:00,61.8,53.1,30.04,SE,141,0.0,0.0,73,0.00,,---,0.00,VWS V14.00,2013-06-20 01:49:00,
2013-06-19 21:51:00,61.8,53.4,30.04,SE,141,0.0,0.0,74,0.00,,---,0.00,VWS V14.00,2013-06-20 01:51:00,
2013-06-19 21:52:00,61.8,53.4,30.04,SE,141,0.0,0.0,74,0.00,,---,0.00,VWS V14.00,2013-06-20 01:52:00,
2013-06-19 21:53:00,61.6,53.2,30.04,SE,141,0.0,0.0,74,0.00,,---,0.00,VWS V14.00,2013-06-20 01:53:00,
2013-06-19 21:54:00,61.5,53.2,30.04,SE,141,0.0,0.0,74,0.00,,---,0.00,VWS V14.00,2013-06-20 01:54:00,
2013-06-19 21:56:00,61.0,53.0,30.04,SE,141,0.0,0.0,75,0.00,,---,0.00,VWS V14.00,2013-06-20 01:56:00,
2013-06-19 21:57:00,61.0,53.4,30.04,SE,141,0.0,0.0,76,0.00,,---,0.00,VWS V14.00,2013-06-20 01:57:00,
2013-06-19 21:58:00,60.9,53.3,30.04,SE,141,0.0,0.0,76,0.00,,---,0.00,VWS V14.00,2013-06-20 01:58:00,
2013-06-19 21:59:00,60.9,53.3,30.04,SE,141,0.0,0.0,76,0.00,,---,0.00,VWS V14.00,2013-06-20 01:59:00,
2013-06-19 22:01:00,60.9,53.7,30.05,SE,141,0.0,0.0,77,0.00,,---,0.00,VWS V14.00,2013-06-20 02:01:00,
2013-06-19 22:02:00,60.7,53.5,30.05,SE,141,0.0,0.0,77,0.00,,---,0.00,VWS V14.00,2013-06-20 02:02:00,
2013-06-19 22:04:00,60.7,53.1,30.05,SE,141,0.0,0.0,76,0.00,,---,0.00,VWS V14.00,2013-06-20 02:04:00,
2013-06-19 22:06:00,60.5,52.9,30.05,SE,141,0.0,0.0,76,0.00,,---,0.00,VWS V14.00,2013-06-20 02:06:00,
2013-06-19 22:07:00,60.4,53.2,30.05,SE,141,0.0,0.0,77,0.00,,---,0.00,VWS V14.00,2013-06-20 02:07:00,
2013-06-19 22:09:00,60.2,53.0,30.05,SE,141,0.0,0.0,77,0.00,,---,0.00,VWS V14.00,2013-06-20 02:09:00,
2013-06-19 22:11:00,60.1,52.9,30.05,SE,141,0.0,0.0,77,0.00,,---,0.00,VWS V14.00,2013-06-20 02:11:00,
2013-06-19 22:12:00,59.9,52.7,30.05,SE,141,0.0,0.0,77,0.00,,---,0.00,VWS V14.00,2013-06-20 02:12:00,
2013-06-19 22:14:00,59.9,53.0,30.05,SE,141,0.0,0.0,78,0.00,,---,0.00,VWS V14.00,2013-06-20 02:14:00,
2013-06-19 22:15:00,59.9,53.0,30.05,SE,141,0.0,0.0,78,0.00,,---,0.00,VWS V14.00,2013-06-20 02:15:00,
2013-06-19 22:16:00,59.8,52.9,30.05,SE,141,0.0,0.0,78,0.00,,---,0.00,VWS V14.00,2013-06-20 02:16:00,
2013-06-19 22:18:00,59.6,53.1,30.05,SE,141,0.0,0.0,79,0.00,,---,0.00,VWS V14.00,2013-06-20 02:18:00,
2013-06-19 22:19:00,59.5,53.0,30.05,SE,141,0.0,0.0,79,0.00,,---,0.00,VWS V14.00,2013-06-20 02:19:00,
2013-06-19 22:20:00,59.5,53.0,30.05,SE,141,0.0,0.0,79,0.00,,---,0.00,VWS V14.00,2013-06-20 02:20:00,
2013-06-19 22:21:00,59.5,53.0,30.05,SE,141,0.0,0.0,79,0.00,,---,0.00,VWS V14.00,2013-06-20 02:21:00,
2013-06-19 22:23:00,59.3,52.8,30.05,SE,141,0.0,0.0,79,0.00,,---,0.00,VWS V14.00,2013-06-20 02:23:00,
2013-06-19 22:24:00,59.3,52.8,30.05,SE,141,0.0,0.0,79,0.00,,---,0.00,VWS V14.00,2013-06-20 02:24:00,
2013-06-19 22:25:00,59.3,52.8,30.05,SE,141,0.0,0.0,79,0.00,,---,0.00,VWS V14.00,2013-06-20 02:25:00,
2013-06-19 22:26:00,59.3,52.8,30.05,SE,141,0.0,0.0,79,0.00,,---,0.00,VWS V14.00,2013-06-20 02:26:00,
2013-06-19 22:28:00,59.3,52.8,30.05,SE,141,0.0,0.0,79,0.00,,---,0.00,VWS V14.00,2013-06-20 02:28:00,
2013-06-19 22:29:00,59.3,52.8,30.05,SE,141,0.0,0.0,79,0.00,,---,0.00,VWS V14.00,2013-06-20 02:29:00,
2013-06-19 22:30:00,59.3,53.1,30.05,SE,141,0.0,0.0,80,0.00,,---,0.00,VWS V14.00,2013-06-20 02:30:00,
2013-06-19 22:31:00,59.2,53.0,30.06,SE,141,0.0,0.0,80,0.00,,---,0.00,VWS V14.00,2013-06-20 02:31:00,
2013-06-19 22:33:00,59.2,53.0,30.06,SE,141,0.0,0.0,80,0.00,,---,0.00,VWS V14.00,2013-06-20 02:33:00,
2013-06-19 22:34:00,59.2,53.0,30.06,SE,141,0.0,0.0,80,0.00,,---,0.00,VWS V14.00,2013-06-20 02:34:00,
2013-06-19 22:35:00,59.2,53.0,30.06,SE,141,0.0,0.0,80,0.00,,---,0.00,VWS V14.00,2013-06-20 02:35:00,
2013-06-19 22:37:00,59.0,52.8,30.06,SE,141,0.0,0.0,80,0.00,,---,0.00,VWS V14.00,2013-06-20 02:37:00,
2013-06-19 22:38:00,59.0,52.8,30.06,SE,141,0.0,0.0,80,0.00,,---,0.00,VWS V14.00,2013-06-20 02:38:00,
2013-06-19 22:39:00,58.9,53.1,30.06,SE,141,0.0,0.0,81,0.00,,---,0.00,VWS V14.00,2013-06-20 02:39:00,
2013-06-19 22:40:00,58.9,53.1,30.06,SE,141,0.0,0.0,81,0.00,,---,0.00,VWS V14.00,2013-06-20 02:40:00,
2013-06-19 22:42:00,58.9,52.8,30.06,SE,141,0.0,0.0,80,0.00,,---,0.00,VWS V14.00,2013-06-20 02:42:00,
2013-06-19 22:43:00,58.7,52.9,30.06,SE,141,0.0,0.0,81,0.00,,---,0.00,VWS V14.00,2013-06-20 02:43:00,
2013-06-19 22:45:00,58.7,52.6,30.06,SE,141,0.0,0.0,80,0.00,,---,0.00,VWS V14.00,2013-06-20 02:45:00,
2013-06-19 22:46:00,58.4,52.6,30.06,SE,141,0.0,0.0,81,0.00,,---,0.00,VWS V14.00,2013-06-20 02:46:00,
2013-06-19 22:47:00,58.4,52.6,30.06,SE,141,0.0,0.0,81,0.00,,---,0.00,VWS V14.00,2013-06-20 02:47:00,
2013-06-19 22:48:00,58.3,52.5,30.06,SE,141,0.0,0.0,81,0.00,,---,0.00,VWS V14.00,2013-06-20 02:48:00,
2013-06-19 22:50:00,58.3,52.8,30.06,SE,141,0.0,0.0,82,0.00,,---,0.00,VWS V14.00,2013-06-20 02:50:00,
2013-06-19 22:51:00,58.3,52.8,30.06,SE,141,0.0,0.0,82,0.00,,---,0.00,VWS V14.00,2013-06-20 02:51:00,
2013-06-19 22:52:00,58.3,52.8,30.06,SE,141,0.0,0.0,82,0.00,,---,0.00,VWS V14.00,2013-06-20 02:52:00,
2013-06-19 22:54:00,58.1,52.6,30.06,SE,141,0.0,0.0,82,0.00,,---,0.00,VWS V14.00,2013-06-20 02:54:00,
2013-06-19 22:55:00,58.0,52.5,30.06,SE,141,0.0,0.0,82,0.00,,---,0.00,VWS V14.00,2013-06-20 02:55:00,
2013-06-19 22:56:00,57.8,52.3,30.06,SE,141,0.0,0.0,82,0.00,,---,0.00,VWS V14.00,2013-06-20 02:56:00,
2013-06-19 22:57:00,57.8,52.7,30.06,SE,141,0.0,0.0,83,0.00,,---,0.00,VWS V14.00,2013-06-20 02:57:00,
2013-06-19 22:59:00,57.8,52.7,30.06,SE,141,0.0,0.0,83,0.00,,---,0.00,VWS V14.00,2013-06-20 02:59:00,
2013-06-19 23:00:00,57.6,52.5,30.06,SE,141,0.0,0.0,83,0.00,,---,0.00,VWS V14.00,2013-06-20 03:00:00,
2013-06-19 23:01:00,57.5,52.4,30.06,SE,141,0.0,0.0,83,0.00,,---,0.00,VWS V14.00,2013-06-20 03:01:00,
2013-06-19 23:02:00,57.3,52.2,30.06,SE,141,0.0,0.0,83,0.00,,---,0.00,VWS V14.00,2013-06-20 03:02:00,
2013-06-19 23:04:00,57.3,52.5,30.06,SE,141,0.0,0.0,84,0.00,,---,0.00,VWS V14.00,2013-06-20 03:04:00,
2013-06-19 23:05:00,57.3,52.5,30.06,SE,141,0.0,0.0,84,0.00,,---,0.00,VWS V14.00,2013-06-20 03:05:00,
2013-06-19 23:07:00,57.2,52.4,30.06,SE,141,0.0,0.0,84,0.00,,---,0.00,VWS V14.00,2013-06-20 03:07:00,
2013-06-19 23:09:00,57.0,52.2,30.06,SE,141,0.0,0.0,84,0.00,,---,0.00,VWS V14.00,2013-06-20 03:09:00,
2013-06-19 23:10:00,57.2,52.4,30.06,SE,141,0.0,0.0,84,0.00,,---,0.00,VWS V14.00,2013-06-20 03:10:00,
2013-06-19 23:12:00,57.2,52.4,30.06,SE,141,0.0,0.0,84,0.00,,---,0.00,VWS V14.00,2013-06-20 03:12:00,
2013-06-19 23:14:00,57.0,52.2,30.06,SE,141,0.0,0.0,84,0.00,,---,0.00,VWS V14.00,2013-06-20 03:14:00,
2013-06-19 23:15:00,57.0,52.5,30.06,SE,141,0.0,0.0,85,0.00,,---,0.00,VWS V14.00,2013-06-20 03:15:00,
2013-06-19 23:16:00,57.0,52.5,30.06,SE,141,0.0,0.0,85,0.00,,---,0.00,VWS V14.00,2013-06-20 03:16:00,
2013-06-19 23:17:00,57.0,52.5,30.06,SE,141,0.0,0.0,85,0.00,,---,0.00,VWS V14.00,2013-06-20 03:17:00,
2013-06-19 23:19:00,57.2,52.4,30.06,SE,141,0.0,0.0,84,0.00,,---,0.00,VWS V14.00,2013-06-20 03:19:00,
2013-06-19 23:21:00,57.0,52.2,30.06,SE,141,0.0,0.0,84,0.00,,---,0.00,VWS V14.00,2013-06-20 03:21:00,
2013-06-19 23:22:00,57.2,52.4,30.06,SE,141,0.0,0.0,84,0.00,,---,0.00,VWS V14.00,2013-06-20 03:22:00,
2013-06-19 23:23:00,57.2,52.4,30.06,SE,141,0.0,0.0,84,0.00,,---,0.00,VWS V14.00,2013-06-20 03:23:00,
2013-06-19 23:24:00,57.3,52.5,30.06,SE,141,0.0,0.0,84,0.00,,---,0.00,VWS V14.00,2013-06-20 03:24:00,
2013-06-19 23:26:00,57.2,52.1,30.06,SE,141,0.0,0.0,83,0.00,,---,0.00,VWS V14.00,2013-06-20 03:26:00,
2013-06-19 23:28:00,57.0,51.9,30.06,SE,141,0.0,0.0,83,0.00,,---,0.00,VWS V14.00,2013-06-20 03:28:00,
2013-06-19 23:29:00,56.7,51.6,30.06,SE,141,0.0,0.0,83,0.00,,---,0.00,VWS V14.00,2013-06-20 03:29:00,
2013-06-19 23:31:00,56.7,51.9,30.06,SE,141,0.0,0.0,84,0.00,,---,0.00,VWS V14.00,2013-06-20 03:31:00,
2013-06-19 23:32:00,56.6,51.8,30.06,SE,141,0.0,0.0,84,0.00,,---,0.00,VWS V14.00,2013-06-20 03:32:00,
2013-06-19 23:33:00,56.7,51.9,30.06,SE,141,0.0,0.0,84,0.00,,---,0.00,VWS V14.00,2013-06-20 03:33:00,
2013-06-19 23:34:00,56.6,52.2,30.06,SE,141,0.0,0.0,85,0.00,,---,0.00,VWS V14.00,2013-06-20 03:34:00,
2013-06-19 23:36:00,56.5,52.0,30.06,SE,141,0.0,0.0,85,0.00,,---,0.00,VWS V14.00,2013-06-20 03:36:00,
2013-06-19 23:37:00,56.5,52.0,30.06,SE,141,0.0,0.0,85,0.00,,---,0.00,VWS V14.00,2013-06-20 03:37:00,
2013-06-19 23:38:00,56.5,52.0,30.06,SE,141,0.0,0.0,85,0.00,,---,0.00,VWS V14.00,2013-06-20 03:38:00,
2013-06-19 23:39:00,56.3,51.9,30.06,SE,141,0.0,0.0,85,0.00,,---,0.00,VWS V14.00,2013-06-20 03:39:00,
2013-06-19 23:41:00,56.3,51.9,30.06,SE,141,0.0,0.0,85,0.00,,---,0.00,VWS V14.00,2013-06-20 03:41:00,
2013-06-19 23:42:00,56.3,51.9,30.06,SE,141,0.0,0.0,85,0.00,,---,0.00,VWS V14.00,2013-06-20 03:42:00,
2013-06-19 23:43:00,56.2,51.8,30.06,SE,141,0.0,0.0,85,0.00,,---,0.00,VWS V14.00,2013-06-20 03:43:00,
2013-06-19 23:44:00,56.0,51.9,30.06,SE,141,0.0,0.0,86,0.00,,---,0.00,VWS V14.00,2013-06-20 03:44:00,
2013-06-19 23:47:00,55.9,51.8,30.06,SE,141,0.0,0.0,86,0.00,,---,0.00,VWS V14.00,2013-06-20 03:47:00,
2013-06-19 23:48:00,55.9,51.8,30.06,SE,141,0.0,0.0,86,0.00,,---,0.00,VWS V14.00,2013-06-20 03:48:00,
2013-06-19 23:50:00,55.9,51.8,30.06,SE,141,0.0,0.0,86,0.00,,---,0.00,VWS V14.00,2013-06-20 03:50:00,
2013-06-19 23:52:00,55.7,51.6,30.06,SE,141,0.0,0.0,86,0.00,,---,0.00,VWS V14.00,2013-06-20 03:52:00,
2013-06-19 23:53:00,55.7,51.6,30.06,SE,141,0.0,0.0,86,0.00,,---,0.00,VWS V14.00,2013-06-20 03:53:00,
2013-06-19 23:55:00,55.9,52.1,30.06,SE,141,0.0,0.0,87,0.00,,---,0.00,VWS V14.00,2013-06-20 03:55:00,
2013-06-19 23:57:00,55.9,51.8,30.06,SE,141,0.0,0.0,86,0.00,,---,0.00,VWS V14.00,2013-06-20 03:57:00,
2013-06-19 23:58:00,55.9,51.8,30.06,SE,141,0.0,0.0,86,0.00,,---,0.00,VWS V14.00,2013-06-20 03:58:00,
2013-06-19 23:59:00,55.7,51.6,30.06,SE,141,0.0,0.0,86,0.00,,---,0.00,VWS V14.00,2013-06-20 03:59:00,